     2              OBSERVATION DATA    GPS                 RINEX VERSION / TYPE
ASRINEXO V2.2.0 UX USGS 02-FEB-94 15:25                     PGM / RUN BY / DATE
                                                            COMMENT
Original Marker Name: chat Chatsworth_RS_1924_USGS_2000     COMMENT
Campaign Name: northridge earthquake profile                COMMENT
4-Character Station Name: CHAT                              COMMENT
6-Character Antenna Code: ASHP12                            COMMENT
Vertical Measurement Point: EGP                             COMMENT
Vertical Offset to Rinex Ref. Point: 0.0593                 COMMENT
Radial Measurement Point: EGP                               COMMENT
Radial Offset to Rinex Ref. Point: 0.1425                   COMMENT
Antenna Height from Field Measurement: 1.3360 m             COMMENT
Additional Antenna Identification Info.:                    COMMENT
Ashtech L1/L2 Revision B                                    COMMENT
Original XYZ: -2531814.0700 -4644554.8600 3552546.3700      COMMENT
New XYZ position is based on association with SCEC monument COMMENT
E1E9I1E1+0011. Position of that monument is believed to be  COMMENT
valid to within 1 m horizontally; vertical accuracy         COMMENT
should be no worse than 3-times this value.                 COMMENT
                                                            COMMENT
Revised Rinex header created by UCSD GPS archive for        COMMENT
GSAC on 31-Aug-1999 (1999:243) 02:53:16 GMT                 COMMENT
For assistance contact dagnew@ucsd.edu or hjohnson@ucsd.edu COMMENT
                                                            COMMENT
CHAT CHATSWORTH_RS_1924_USGS_2000                           MARKER NAME
                                                            MARKER NUMBER
GDH US GEOLOGICAL SURVEY                                    OBSERVER / AGENCY
99 ASHTECH L-XII 7A                                         REC # / TYPE / VERS
36 ASHTECH GEODETIC P                                       ANT # / TYPE
 -2529731.0000 -4632040.0000  3570428.0000                  APPROX POSITION XYZ
        1.2691        0.0000        0.0000                  ANTENNA: DELTA H/E/N
     1     2     0                                          WAVELENGTH FACT L1/2
     3    C1    L1    L2                                    # / TYPES OF OBSERV
    30                                                      INTERVAL
  1994     2     2     1    42   30.000000                  TIME OF FIRST OBS
  1994     2     2     3    51    0.000000                  TIME OF LAST OBS
                                                            END OF HEADER
 94  2  2  1 42 30.0000000  0  3  2  7 15
  21050125.242    -6615637.75519     -1886.868
  20853601.422     -570324.25018    -63356.700
  23968688.792    18918569.59215    -37142.856
 94  2  2  1 43  0.0000000  0  4 19  2  7 15
  23096301.673    12081808.01016     57629.588
  21049371.114    -6619597.110 9     -4978.145 1
  20844228.951     -619581.895 8   -101735.967 1
  23964441.842    18896282.168 5    -54509.750 1
 94  2  2  1 43 30.0000000  0  5 19  2 27  7 15
  23110382.925    12155825.104 6    115305.228 1
  21048563.862    -6623838.146 9     -8272.053
  20989680.666    13135623.27318     10407.797
  20834858.308     -668828.176 8   -140109.586 4
  23960218.006    18874049.299 5    -71833.993 1
 94  2  2  1 44  0.0000000  0  6 19  2 27  7 13 15
  23124533.668    12230176.821 6    173241.602 1
  21047805.328    -6627826.061 9    -11379.685 1
  20998222.533    13180530.866 8     45405.467 1
  20825584.888     -717542.742 8   -178068.964 6
  24308659.375     8683590.23615   -105932.386
  23956093.641    18852391.571 5    -88710.099 1
 94  2  2  1 44 30.0000000  0  6 19  2 27  7 13 15
  23138796.325    12305155.139 6    231666.251 2
  21047152.260    -6631254.862 9    -14054.151 1
  21006915.975    13226210.208 8     80999.851 3
  20816479.561     -765406.989 8   -215365.749 7
  24284865.897     8558594.834 5   -203331.220
  23952133.473    18831619.142 5   -104896.315 2
 94  2  2  1 45  0.0000000  0  7 19  2 27 26  7 13 15
  23153211.125    12380903.487 6    290690.944 2
  21046635.927    -6633968.579 9    -16157.594
  21015787.103    13272833.088 8    117329.365 4
  22771320.293    -6207977.88917   -104680.153
  20807567.301     -812249.133 8   -251866.080 8
  24261201.120     8434241.867 4   -300229.387
  23948383.249    18811894.128 5   -120266.460 2
 94  2  2  1 45 30.0000000  0  7 19  2 27 26  7 13 15
  23167786.405    12457483.799 6    350363.955 2
  21046267.033    -6635904.423 9    -17666.254 4
  21024852.138    13320467.787 8    154447.337 5
  22763650.223    -6248278.911 7   -136087.822
  20798857.431     -857996.237 8   -287513.149 8
  24237678.354     8310598.499 5   -396574.778 1
  23944842.281    18793281.860 5   -134769.536 2
 94  2  2  1 46  0.0000000  0  7 19  2 27 26  7 13 15
  23182517.817    12534888.166 6    410678.990 2
  21046044.077    -6637066.573 9    -18571.793 6
  21034111.947    13369127.802 8    192364.225 5
  22756191.087    -6287447.543 7   -166607.717 1
  20790363.741     -902647.262 8   -322306.115 9
  24214284.350     8187676.582 5   -492358.000 1
  23941503.102    18775792.784 5   -148397.306 2
 94  2  2  1 46 30.0000000  0  7 19  2 27 26  7 13 15
  23197398.615    12613090.864 6    471616.160 2
  21045967.480    -6637486.967 9    -18899.362 7
  21043560.176    13418791.261 7    231063.035 6
  22748952.058    -6325506.070 7   -196263.685 2
  20782069.892     -946229.733 8   -356266.457 9
  24191027.830     8065458.356 5   -587592.810 1
  23938395.963    18759407.353 5   -161165.069 2
 94  2  2  1 47  0.0000000  0  7 19  2 27 26  7 13 15
  23212422.384    12692090.063 6    533173.969 2
  21046022.252    -6637189.457 9    -18667.504 8
  21053197.155    13469428.414 7    270520.557 6
  22741911.043    -6362497.639 7   -225088.275 2
  20773973.877     -988774.518 8   -389418.197 9
  24167886.041     7943918.442 5   -682299.109 1
  23935486.777    18744097.975 5   -173094.424 2
 94  2  2  1 47 30.0000000  0  7 19  2 27 26  7 13 15
  23227605.643    12771866.052 6    595337.135 2
  21046209.982    -6636199.745 9    -17896.278 9
  21063010.861    13520994.584 7    310702.001 6
  22735065.522    -6398465.298 7   -253115.012 2
  20766069.639    -1030312.951 8   -421785.785 9
  24144902.002     7823024.572 5   -776502.082 1
  23932775.694    18729830.998 5   -184211.598 2
 94  2  2  1 48  0.0000000  0  7 19  2 27 26  7 13 15
  23242940.447    12852391.363 6    658084.072 2
  21046524.764    -6634559.101 9    -16617.838 9
  21072994.070    13573459.193 7    351583.524 6
  22728410.249    -6433437.537 7   -280366.085 3
  20758347.675    -1070883.748 8   -453399.352 9
  24121991.833     7702743.776 5   -870227.275 1
  23930245.176    18716571.446 5   -194543.645 2
 94  2  2  1 48 30.0000000  0  7 19  2 27 26  7 13 15
  23258393.999    12933632.307 6    721388.694 2
  21046951.758    -6632303.119 9    -14859.910 9
  21083145.072    13626788.227 7    393138.595 6
  22721939.649    -6467452.418 7   -306871.161 3
  20750807.955    -1110517.380 8   -484282.681 9
  24099216.719     7583033.764 5   -963507.733 1
  23927899.180    18704275.455 5   -204124.842 2
 94  2  2  1 49  0.0000000  0  7 19  2 27 26  7 13 15
  23273986.624    13015561.728 6    785229.798 2
  21047494.563    -6629460.389 9    -12644.774 9
  21093449.329    13680958.647 7    435349.343 6
  22715649.253    -6500528.344 7   -332644.619 3
  20743439.386    -1149243.516 8   -514458.857 9
  24076542.007     7463863.922 5  -1056367.268 1
  23925744.602    18692910.378 5   -212980.690 2
 94  2  2  1 49 30.0000000  0  7 19  2 27 26  7 13 15
  23289695.599    13098133.651 6    849571.598 2
  21048142.564    -6626056.355 9     -9992.257 9
  21103918.052    13735947.644 7    478197.895 6
  22709529.770    -6532675.532 7   -357694.349 4
  20736233.604    -1187091.953 8   -543951.107 9
  24053958.761     7345212.199 5  -1148823.100 1
  23923742.288    18682452.240 5   -221129.876 2
 94  2  2  1 50  0.0000000  0  7 19  2 27 26  7 13 15
  23305515.887    13181296.298 5    914373.652 2
  21048887.938    -6622126.878 9     -6930.306 9
  21114530.225    13791735.750 7    521669.149 6
  22703584.286    -6563921.613 7   -382041.900 4
  20729195.017    -1224094.556 8   -572784.274 9
  24031474.656     7227054.388 5  -1240893.960 1
  23921919.190    18672875.043 5   -228592.618 2
 94  2  2  1 50 30.0000000  0  7 19  2 27 26  7 13 15
  23321451.325    13265013.609 6    979607.904 2
  21049736.890    -6617682.855 9     -3467.423 9
  21125294.423    13848288.184 7    565735.975 6
  22697801.589    -6594299.280 7   -405712.802 4
  20722309.953    -1260272.269 8   -600974.667 9
  24009085.136     7109371.718 5  -1332594.680 1
  23920268.773    18664157.747 5   -235385.237 2
 94  2  2  1 51  0.0000000  0  7 19  2 27 26  7 13 15
  23337488.153    13349241.188 6   1045239.753 2
  21050670.954    -6612761.633 9       367.329 9
  21136190.590    13905557.016 7    610361.060 6
  22692180.840    -6623841.285 7   -428732.524 4
  20715577.664    -1295653.360 8   -628544.314 9
  23986783.335     6992140.125 5  -1423943.843 2
  23918770.080    18656274.727 5   -241527.799 2
 94  2  2  1 51 30.0000000  0  7 19  2 27 26  7 13 15
  23353608.563    13433947.517 6   1111244.724 2
  21051694.535    -6607384.736 9      4557.125 9
  21147216.567    13963506.532 7    655516.532 6
  22686710.437    -6652581.258 7   -451127.274 4
  20708992.903    -1330244.445 8   -655498.377 9
  23964549.947     6875344.009 5  -1514953.713 1
  23917421.314    18649208.722 5   -247033.710 2
 94  2  2  1 52  0.0000000  0  7 19  2 27 26  7 13 15
  23369818.042    13519126.271 6   1177617.741 2
  21052800.799    -6601578.950 9      9081.146 9
  21158373.403    14022107.783 7    701179.847 6
  22681391.310    -6680543.503 7   -472916.024 4
  20702556.628    -1364066.833 8   -681853.454 9
  23942403.379     6758965.699 5  -1605638.026 1
  23916240.191    18642939.526 5   -251918.853 2
 94  2  2  1 52 30.0000000  0  7 19  2 27 26  7 13 15
  23386107.385    13604785.812 5   1244365.431 2
  21053983.151    -6595362.235 9     13925.352 9
  21169639.933    14081336.080 7    747331.757 6
  22676214.673    -6707742.043 7   -494109.677 4
  20696268.871    -1397126.164 8   -707613.922 9
  23920338.504     6642991.578 5  -1696007.282 1
  23915193.496    18637451.611 5   -256195.084 2
 94  2  2  1 53  0.0000000  0  7 19  2 27 26  7 13 15
  23402498.387    13690915.906 5   1311479.800 2
  21055234.964    -6588766.281 9     19065.087 9
  21181029.079    14141176.238 7    793960.460 6
  22671181.787    -6734197.247 7   -514724.087 4
  20690120.278    -1429433.894 8   -732788.756 9
  23898347.019     6527405.174 6  -1786074.522 1
  23914298.256    18632726.775 5   -259876.709 2
 94  2  2  1 53 30.0000000  0  7 19  2 27 26  7 13 15
  23418972.852    13777534.889 5   1378975.104 2
  21056563.524    -6581801.042 9     24492.553 9
  21192529.867    14201629.654 7    841067.009 6
  22666280.930    -6759929.740 7   -534775.357 4
  20684110.099    -1461018.644 8   -757400.232 9
  23876428.113     6412192.183 6  -1875850.782 1
  23913534.115    18628748.430 5   -262976.665 2
 94  2  2  1 54  0.0000000  0  7 19  2 27 26  7 13 15
  23435560.069    13864644.739 5   1446852.915 2
  21057958.549    -6574473.324 9     30202.496 9
  21204153.360    14262707.087 7    888659.834 6
  22661522.774    -6784940.607 7   -554264.330 4
  20678235.246    -1491899.491 8   -781463.187 9
  23854565.628     6297348.038 5  -1965339.621 1
  23912920.050    18625509.624 5   -265500.460 2
 94  2  2  1 54 30.0000000  0  7 19  2 27 26  7 13 15
  23452220.705    13952216.977 5   1515090.950 2
  21059419.527    -6566795.991 9     36184.848 9
  21215893.742    14324393.717 7    936727.333 6
  22656895.777    -6809251.179 7   -573207.618 4
  20672488.044    -1522085.458 8   -804984.689 9
  23832788.284     6182859.183 5  -2054551.622 1
  23912432.258    18622995.102 5   -267459.784 2
 94  2  2  1 55  0.0000000  0  7 19  2 27 26  7 13 15
  23468967.292    14040227.016 5   1583670.231 2
  21060944.571    -6558771.121 9     42438.007 9
  21227747.027    14386687.347 7    985267.833 6
  22652402.938    -6832872.128 7   -591613.517 4
  20666872.872    -1551605.465 8   -827987.254 9
  23811059.836     6068715.525 5  -2143494.642 2
  23912081.800    18621192.365 5   -268864.462 2
 94  2  2  1 55 30.0000000  0  7 19  2 27 26  7 13 15
  23485797.791    14128654.730 5   1652574.926 2
  21062535.750    -6550395.836 9     48964.240 9
  21239713.183    14449577.810 7   1034273.395 6
  22648042.606    -6855804.703 7   -609483.029 4
  20661378.785    -1580479.192 8   -850486.234 9
  23789392.037     5954911.328 5  -2232173.139 2
  23911886.605    18620093.604 5   -269720.574 2
 94  2  2  1 56  0.0000000  0  7 19  2 27 26  7 13 15
  23502701.348    14217456.119 5   1721770.822 2
  21064195.131    -6541679.312 9     55756.349 9
  21251792.570    14513050.363 7   1083732.542 6
  22643812.385    -6878038.943 7   -626808.414 4
  20656007.254    -1608698.701 8   -872475.439 9
  23767814.774     5841447.344 6  -2320586.541 1
  23911812.197    18619697.533 5   -270029.290 2
 94  2  2  1 56 30.0000000  0  7 19  2 27 26  7 13 15
  23519662.526    14306604.932 5   1791237.414 2
  21065918.518    -6532634.121 9     62804.577 9
  21263971.699    14577080.023 7   1133625.772 6
  22639709.215    -6899592.878 7   -643603.669 4
  20650764.543    -1636272.291 8   -893961.315 9
  23746288.686     5728315.755 6  -2408740.976 1
  23911861.543    18619994.038 5   -269798.176 2
 94  2  2  1 57  0.0000000  0  7 19  2 27 26  7 13 15
  23536677.697    14396086.833 5   1860963.522 2
  21067699.435    -6523272.827 9     70099.121 9
  21276262.770    14641654.033 7   1183943.195 6
  22635731.659    -6920468.613 7   -659870.435 4
  20645631.017    -1663213.806 8   -914954.681 9
  23724821.718     5615506.537 6  -2496644.164 1
  23912058.656    18620971.071 5   -269036.792 2
 94  2  2  1 57 30.0000000  0  7 19  2 27 26  7 13 15
  23553772.822    14485896.655 5   1930945.242 2
  21069541.120    -6513615.649 9     77624.212 9
  21288651.963    14706754.525 7   1234670.874 6
  22631891.737    -6940666.856 7   -675609.333 4
  20640627.421    -1689518.620 8   -935451.911 9
  23703408.382     5503021.011 6  -2584295.126 1
  23912368.822    18622627.486 5   -267746.037 2
 94  2  2  1 58  0.0000000  0  7 19  2 27 26  7 13 15
  23570943.076    14576018.834 5   2001170.326 2
  21071429.903    -6503682.237 9     85364.559 9
  21301142.636    14772374.750 7   1285803.521 6
  22628174.881    -6960202.507 7   -690831.923 4
  20635741.763    -1715192.947 8   -955457.850 9
  23682070.174     5390853.382 6  -2671698.413 1
  23912803.011    18624955.065 5   -265932.352 2
 94  2  2  1 58 30.0000000  0  7 19  2 27 26  7 13 15
  23588147.385    14666463.385 5   2071646.583 2
  21073369.560    -6493471.872 9     93320.711 9
  21313726.005    14838506.781 7   1337334.971 5
  22624582.048    -6979088.747 7   -705548.433 4
  20630975.783    -1740245.098 8   -974978.972 9
  23660782.211     5278999.821 6  -2758856.942 2
  23913385.118    18627948.008 5   -263600.151 2
 94  2  2  1 59  0.0000000  0  7 19  2 27 26  7 13 15
  23605414.651    14757251.769 5   2142390.725 2
  21075368.996    -6482984.297 9    101492.865 9
  21326411.033    14905160.273 7   1389272.756 5
  22621107.513    -6997320.957 7   -719755.318 4
  20626324.653    -1764672.204 8   -994013.056 9
  23639555.916     5167461.203 6  -2845770.080 1
  23914077.369    18631605.016 5   -260750.499 2
 94  2  2  1 59 30.0000000  0  7 19  2 27 26  7 13 15
  23622762.532    14848383.256 5   2213402.279 2
  21077414.929    -6472215.056 9    109884.504 9
  21339195.682    14972338.057 7   1441619.080 5
  22617765.906    -7014902.395 7   -733455.139 4
  20621796.647    -1788472.391 8  -1012558.626 9
  23618392.457     5056241.493 6  -2932434.693 1
  23914898.290    18635927.674 5   -257382.146 2
 94  2  2  2  0  0.0000000  0  7 19  2 27 26  7 13 15
  23640160.388    14939852.714 5   2284677.201 2
  21079520.102    -6461156.641 9    118501.463 9
  21352082.021    15040052.178 7   1494383.339 5
  22614539.510    -7031840.857 7   -746653.931 4
  20617384.961    -1811647.772 8  -1030617.326 9
  23597287.428     4945337.822 6  -3018853.007 2
  23915844.256    18640910.672 5   -253499.297 2
 94  2  2  2  0 30.0000000  0  7 19  2 27 26  7 13 15
  23657641.466    15031680.674 5   2356231.480 2
  21081679.357    -6449806.204 9    127345.983 9
  21365066.662    15108304.983 7   1547567.353 5
  22611439.206    -7048128.754 7   -759345.774 4
  20613093.282    -1834206.138 8  -1048195.245 9
  23576238.220     4834752.218 6  -3105023.499 2
  23916919.821    18646553.764 5   -249102.054 2
 94  2  2  2  1  0.0000000  0  7 19  2 27 26  7 13 15
  23675184.901    15123856.945 5   2428057.127 2
  21083893.714    -6438167.887 9    136414.829 9
  21378156.380    15177094.923 7   1601169.898 5
  22608465.445    -7063773.243 7   -771536.261 4
  20608914.775    -1856158.165 8  -1065300.695 9
  23555249.780     4724480.345 6  -3190949.558 2
  23918124.807    18652850.059 5   -244195.779 2
 94  2  2  2  1 30.0000000  0  7 19  2 27 26  7 13 15
  23692782.958    15216351.140 5   2500130.479 2
  21086163.053    -6426254.582 9    145697.935 9
  21391346.649    15246399.450 7   1655173.449 5
  22605607.613    -7078777.888 7   -783228.166 4
  20604847.791    -1877523.571 8  -1081949.031 9
  23534325.436     4614519.919 6  -3276632.921 2
  23919436.159    18659794.743 5   -238784.281 2
 94  2  2  2  2  0.0000000  0  7 19  2 27 26  7 13 15
  23710448.168    15309172.742 5   2572459.044 2
  21088475.082    -6414094.122 9    155173.636 9
  21404626.705    15316207.998 7   1709569.715 5
  22602875.035    -7093147.668 7   -794425.390 4
  20600895.237    -1898315.188 8  -1098150.257 9
  23513469.864     4504867.298 6  -3362076.497 2
  23920879.660    18667381.737 5   -232872.264 2
 94  2  2  2  2 30.0000000  0  7 19  2 27 26  7 13 15
  23728168.871    15402323.216 5   2645043.810 2
  21090837.237    -6401690.761 9    164838.601 9
  21418002.246    15386502.418 7   1764344.597 5
  22600256.648    -7106888.253 7   -805132.299 4
  20597045.002    -1918532.506 8  -1113903.998 9
  23492659.650     4395523.574 6  -3447279.262 2
  23922449.823    18675609.701 5   -226460.913 2
 94  2  2  2  3  0.0000000  0  7 19  2 27 26  7 13 15
  23745964.101    15495794.396 5   2717878.433 2
  21093240.224    -6389053.144 9    174686.125 9
  21431471.441    15457273.193 7   1819490.668 5
  22597763.724    -7119999.178 7   -815348.598 4
  20593314.445    -1938156.136 8  -1129195.110 9
  23471906.457     4286492.813 6  -3532238.182 2
  23924148.567    18684480.463 5   -219548.576 2
 94  2  2  2  3 30.0000000  0  7 19  2 27 26  7 13 15
  23763801.692    15589582.853 5   2790960.365 2
  21095687.190    -6376204.084 9    184698.395 9
  21445026.887    15528507.629 7   1874998.011 5
  22595392.575    -7132479.004 7   -825073.124 4
  20589695.860    -1957176.926 8  -1144016.474 9
  23451220.148     4177772.924 6  -3616954.970 2
  23925949.960    18693989.484 5   -212138.902 2
 94  2  2  2  4  0.0000000  0  7 19  2 27 26  7 13 15
  23781714.262    15683687.548 5   2864288.706 2
  21098171.810    -6363136.561 9    194880.901 9
  21458677.786    15600208.311 7   1930868.707 5
  22593136.367    -7144334.244 7   -834310.940 4
  20586187.959    -1975575.651 8  -1158353.106 9
  23430596.226     4069363.996 6  -3701429.359 2
  23927869.561    18704133.909 5   -204234.082 2
 94  2  2  2  4 30.0000000  0  7 19  2 27 26  7 13 15
  23799678.276    15778080.705 5   2937841.833 2
  21100706.885    -6349819.165 9    205258.118 9
  21472404.144    15672367.997 7   1987097.033 5
  22590997.408    -7155564.527 7   -843061.776 4
  20582808.398    -1993350.679 8  -1172203.775 9
  23410025.876     3961267.809 6  -3785660.104 2
  23929933.302    18714913.233 5   -195834.614 2
 94  2  2  2  5  0.0000000  0  7 19  2 27 26  7 13 15
  23817695.982    15872748.664 5   3011609.039 2
  21103284.980    -6336256.469 9    215826.465 9
  21486220.469    15744978.444 7   2043676.630 5
  22588975.877    -7166165.140 7   -851321.973 4
  20579542.040    -2010521.011 8  -1185583.228 9
  23389513.327     3853478.207 6  -3869651.901 2
  23932099.992    18726318.944 5   -186947.063 2
 94  2  2  2  5 30.0000000  0  7 19  2 27 26  7 13 15
  23835756.409    15967668.020 5   3085572.156 2
  21105917.817    -6322435.291 9    226596.227 9
  21500122.835    15818035.065 7   2100603.848 5
  22587086.226    -7176146.677 7   -859099.779 4
  20576382.287    -2027111.332 8  -1198510.702 9
  23369051.232     3745992.237 6  -3953407.129 2
  23934394.454    18738345.047 5   -177576.013 2
 94  2  2  2  6  0.0000000  0  7 19  2 27 26  7 13 15
  23853862.764    16062833.728 5   3159727.272 2
  21108605.007    -6308326.204 9    237590.337 9
  21514110.311    15891549.136 7   2157887.560 5
  22585297.664    -7185518.026 7   -866402.079 4
  20573328.751    -2043144.982 8  -1211004.430 9
  23348658.840     3638815.062 6  -4036921.790 2
  23936797.140    18750994.386 5   -167719.315 2
 94  2  2  2  6 30.0000000  0  7 19  2 27 26  7 13 15
  23872026.710    16158262.217 5   3234087.146 2
  21111341.273    -6293935.942 9    248803.519 9
  21528190.214    15965531.593 7   2215536.218 5
  22583628.929    -7194282.791 7   -873231.777 4
  20570385.119    -2058638.823 8  -1223077.552 9
  23328336.389     3531949.129 6  -4120193.873 2
  23939312.009    18764266.687 5   -157377.277 2
 94  2  2  2  7  0.0000000  0  7 19  2 27 26  7 13 15
  23890225.371    16253957.207 5   3308654.684 2
  21114125.505    -6279296.488 9    260210.915 9
  21542357.416    16039992.117 7   2273557.419 5
  22582074.985    -7202453.688 7   -879598.704 4
  20567540.658    -2073586.339 8  -1234724.944 9
  23308043.797     3425394.225 6  -4203223.640 2
  23941966.162    18778159.298 5   -146551.895 2
 94  2  2  2  7 30.0000000  0  7 19  2 27 26  7 13 15
  23908486.030    16349912.281 5   3383424.743 2
  21116957.824    -6264428.355 9    271796.476 9
  21556621.002    16114931.284 7   2331951.568 5
  22580627.557    -7210048.884 7   -885517.011 4
  20564800.675    -2087978.217 8  -1245939.364 9
  23287829.661     3319146.567 6  -4286013.952 2
  23944720.505    18792665.493 5   -135248.307 2
 94  2  2  2  8  0.0000000  0  7 19  2 27 26  7 13 15
  23926799.361    16446135.285 5   3458403.771 2
  21119823.690    -6249358.758 9    283539.051 9
  21570973.086    16190348.978 7   2390718.601 5
  22579295.789    -7217068.197 7   -890986.562 4
  20562168.827    -2101809.368 8  -1256716.864 9
  23267680.850     3213202.740 6  -4368567.517 2
  23947606.337    18807779.457 5   -123471.128 2
 94  2  2  2  8 30.0000000  0  7 19  2 27 26  7 13 15
  23945163.508    16542617.410 5   3533584.657 2
  21122727.540    -6234114.215 9    295417.923 9
  21585409.952    16266228.824 7   2449845.755 5
  22578065.800    -7223507.059 7   -896003.823 4
  20559647.782    -2115065.865 8  -1267046.575 9
  23247567.894     3107561.438 6  -4450885.405 2
  23950590.111    18823496.816 5   -111223.813 2
 94  2  2  2  9  0.0000000  0  7 19  2 27 26  7 13 15
  23963553.377    16639333.420 5   3608947.786 1
  21125659.540    -6218697.185 9    307431.216 9
  21599938.194    16342549.608 7   2509316.519 5
  22576956.208    -7229358.316 7   -900563.241 4
  20557235.202    -2127751.694 8  -1276931.609 9
  23227522.181     3002216.615 6  -4532972.199 2
  23953687.357    18839808.914 5    -98513.152 2
 94  2  2  2  9 30.0000000  0  7 19  2 27 26  7 13 15
  23982006.322    16736291.488 5   3684499.496 1
  21128630.094    -6203092.395 9    319590.808 9
  21614543.783    16419306.311 7   2569126.951 5
  22575953.013    -7234617.230 7   -904661.069 4
  20554927.370    -2139888.532 8  -1286388.846 9
  23207527.253     2897172.316 6  -4614824.825 2
  23956918.580    18856717.210 5    -85337.817 2
 94  2  2  2 10  0.0000000  0  7 19  2 27 26  7 13 15
  24000506.215    16833485.015 5   3760234.711 2
  21131635.303    -6187290.920 9    331903.672 9
  21629230.885    16496487.436 7   2629268.086 5
  22575062.659    -7239294.310 7   -908305.505 4
  20552715.411    -2151501.060 8  -1295437.536 9
  23187593.483     2792429.592 6  -4696442.464 2
  23960249.215    18874219.731 5    -71699.371 2
 94  2  2  2 10 30.0000000  0  7 19  2 27 26  7 13 15
  24019054.255    16930923.320 5   3836160.642 2
  21134679.995    -6171284.378 9    344376.312 9
  21643996.083    16574084.627 7   2689733.436 5
  22574283.709    -7243402.894 7   -911506.987 4
  20550603.283    -2162591.208 8  -1304079.214 9
  23167727.976     2687989.581 6  -4777824.253 2
  23963695.988    18892315.253 5    -57598.968 2
 94  2  2  2 11  0.0000000  0  7 19  2 27 26  7 13 15
  24037646.454    17028619.562 5   3912287.599 2
  21137768.158    -6155058.606 9    357019.787 9
  21658839.378    16652099.830 7   2750524.509 5
  22573608.126    -7246938.679 7   -914262.139 4
  20548593.355    -2173170.053 8  -1312322.440 9
  23147907.437     2583857.579 6  -4858966.068 2
  23967245.921    18911005.761 5    -43035.016 2
 94  2  2  2 11 30.0000000  0  7 19  2 27 26  7 13 15
  24056285.210    17126582.555 5   3988622.396 2
  21140896.102    -6138619.757 9    369829.293 9
  21673765.774    16730535.784 7   2811643.431 5
  22573038.700    -7249911.424 7   -916578.547 4
  20546679.480    -2183230.789 8  -1320161.942 9
  23128152.253     2480035.876 6  -4939866.016 2
  23970923.985    18930291.102 5    -28007.437 2
 94  2  2  2 12  0.0000000  0  7 19  2 27 26  7 13 15
  24074985.065    17224803.999 5   4065158.571 1
  21144065.838    -6121969.096 9    382803.867 9
  21688769.547    16809380.962 7   2873081.240 5
  22572586.703    -7252314.664 7   -918451.180 4
  20544865.556    -2192754.359 8  -1327582.880 9
  23108458.827     2376526.754 6  -5020522.453 2
  23974693.575    18950170.364 5    -12517.028 2
 94  2  2  2 12 30.0000000  0  7 19  2 27 26  7 13 15
  24093707.343    17323281.695 5   4141894.409 2
  21147272.388    -6105107.271 9    395942.957 9
  21703851.476    16888640.196 7   2934841.687 5
  22572235.616    -7254126.411 7   -919862.905 4
  20543155.749    -2201725.587 8  -1334573.434 9
  23088830.365     2273334.371 6  -5100932.055 2
  23978595.284    18970645.124 5      3437.360 2
 94  2  2  2 13  0.0000000  0  7 19  2 27 26  7 13 15
  24112506.069    17421986.076 5   4218806.980 2
  21150524.656    -6088038.992 9    409242.961 9
  21719013.810    16968308.938 7   2996921.243 5
  22572006.935    -7255340.207 7   -920808.679 4
  20541551.200    -2210153.247 8  -1341140.406 9
  23069250.470     2170459.313 6  -5181094.368 2
  23982601.560    18991712.893 5     19853.838 2
 94  2  2  2 13 30.0000000  0  7 19  2 27 26  7 13 15
  24131326.680    17520903.609 5   4295885.575 2
  21153809.123    -6070771.644 9    422698.038 9
  21734251.451    17048386.554 7   3059319.346 5
  22571888.936    -7255970.110 7   -921299.543 4
  20540051.968    -2218031.388 8  -1347279.201 9
  23049730.234     2067904.015 6  -5261007.543 2
  23986727.724    19013373.065 5     36731.890 2
 94  2  2  2 14  0.0000000  0  7 19  2 27 26  7 13 15
  24150191.390    17620023.571 5   4373121.873 1
  21157135.020    -6053300.401 9    436311.999 9
  21749567.758    17128872.909 7   3122035.997 5
  22571883.090    -7256018.824 7   -921337.454 4
  20538656.374    -2225375.425 8  -1353001.815 9
  23030280.838     1965675.096 6  -5340666.409 2
  23990964.301    19035629.931 5     54074.968 2
 94  2  2  2 14 30.0000000  0  7 19  2 27 26  7 13 15
  24169089.917    17719343.992 5   4450514.400 1
  21160495.424    -6035633.944 9    450078.102 9
  21764963.809    17209768.639 7   3185071.654 5
  22571980.883    -7255497.336 7   -920931.064 4
  20537353.896    -2232198.755 8  -1358318.662 9
  23010880.009     1863770.521 6  -5420072.507 2
  23995314.230    19058477.964 5     71878.681 2
 94  2  2  2 15  0.0000000  0  7 19  2 27 26  7 13 15
  24188028.346    17818868.899 5   4528066.266 2
  21163895.190    -6017777.243 9    463992.422 9
  21780432.800    17291074.828 7   3248427.109 5
  22572180.155    -7254429.488 7   -920098.993 4
  20536158.533    -2238507.204 8  -1363234.335 9
  22991554.548     1762189.326 6  -5499226.633 2
  23999765.608    19081912.990 5     90139.770 2
 94  2  2  2 15 30.0000000  0  7 19  2 27 26  7 13 15
  24207003.200    17918611.389 5   4605787.673 2
  21167326.405    -5999733.579 9    478052.440 9
  21795984.954    17372801.096 7   3312109.921 5
  22572488.611    -7252824.060 7   -918847.986 4
  20535055.237    -2244295.643 8  -1367744.775 9
  22972279.752     1660932.580 6  -5578127.951 2
  24004343.978    19105933.453 5    108856.973 2
 94  2  2  2 16  0.0000000  0  7 19  2 27 26  7 13 15
  24226030.518    18018578.154 5   4683683.837 1
  21170797.162    -5981499.435 9    492260.870 9
  21811619.730    17454952.689 7   3376124.161 5
  22572902.445    -7250672.969 7   -917171.784 4
  20534051.802    -2249562.082 8  -1371848.482 9
  22953081.492     1560002.268 6  -5656774.917 2
  24009016.274    19130538.558 5    128029.820 2
 94  2  2  2 16 30.0000000  0  7 19  2 27 26  7 13 15
  24245102.685    18118779.574 5   4761762.777 1
  21174302.785    -5963071.967 9    506619.965 9
  21827331.433    17537536.264 7   3440475.021 5
  22573413.081    -7247966.569 7   -915062.857 4
  20533153.384    -2254292.194 8  -1375534.238 9
  22933932.279     1459403.627 6  -5735163.362 2
  24013811.664    19155730.328 5    147659.848 2
 94  2  2  2 17  0.0000000  0  7 19  2 27 26  7 13 15
  24264211.066    18219200.802 5   4840013.151 1
  21177844.953    -5944455.026 9    521126.666 9
  21843130.256    17620539.626 7   3505152.934 5
  22574034.641    -7244702.083 7   -912519.137 4
  20532355.126    -2258489.579 8  -1378804.941 9
  22914851.598     1359135.164 6  -5813294.630 2
  24018719.027    19181504.523 5    167743.640 2
 94  2  2  2 17 30.0000000  0  7 19  2 27 26  7 13 15
  24283355.543    18319832.321 5   4918427.360 2
  21181426.873    -5925646.846 9    535782.402 9
  21859003.067    17703951.822 7   3570149.457 5
  22574762.747    -7240858.891 7   -909524.428 4
  20531654.691    -2262169.136 8  -1381672.102 9
  22895833.604     1259198.337 6  -5891167.387 2
  24023742.319    19207859.189 5    188279.728 2
 94  2  2  2 18  0.0000000  0  7 19  2 27 26  7 13 15
  24302531.767    18420666.126 5   4996999.123 2
  21185041.111    -5906640.503 9    550592.579 9
  21874952.745    17787754.484 7   3635450.266 4
  22575606.123    -7236426.875 7   -906070.855 4
  20531053.098    -2265334.760 8  -1384138.791 9
  22876877.217     1159598.982 6  -5968777.228 2
  24028868.860    19234797.111 5    209270.349 2
 94  2  2  2 18 30.0000000  0  7 19  2 27 26  7 13 15
  24321766.721    18521675.836 5   5075707.979 1
  21188692.014    -5887449.436 9    565546.663 9
  21890968.858    17871928.280 7   3701040.243 4
  22576561.472    -7231412.481 7   -902163.547 4
  20530546.478    -2267998.647 8  -1386214.532 9
  22857995.509     1060334.080 6  -6046126.441 2
  24034091.065    19262312.613 5    230711.020 2
 94  2  2  2 19  0.0000000  0  7 19  2 27 26  7 13 15
  24341019.993    18622856.479 5   5154550.067 1
  21192378.412    -5868076.842 9    580642.225 9
  21907054.702    17956478.697 7   3766923.697 4
  22577628.733    -7225809.003 7   -897797.172 4
  20530135.073    -2270159.746 8  -1387898.483 9
  22839164.735      961408.312 6  -6123211.346 2
  24039446.617    19290406.868 5    252602.738 2
 94  2  2  2 19 30.0000000  0  7 19  2 27 26  7 13 15
  24360308.160    18724212.639 5   5233528.821 1
  21196100.785    -5848514.267 9    595885.743 9
  21923219.721    18041412.977 7   3833106.196 4
  22578808.776    -7219625.037 7   -892978.530 4
  20529822.869    -2271808.146 8  -1389182.974 9
  22820405.582      862827.404 6  -6200027.683 2
  24044908.866    19319082.509 5    274947.298 2
 94  2  2  2 20  0.0000000  0  7 19  2 27 26  7 13 15
  24379626.006    18825748.554 5   5312647.751 2
  21199861.831    -5828766.486 9    611273.645 9
  21939453.303    18126732.404 7   3899588.868 4
  22580090.089    -7212869.056 7   -887714.097 4
  20529607.498    -2272915.796 8  -1390046.047 9
  22801718.529      764595.564 6  -6276571.901 2
  24050473.074    19348340.435 5    297745.694 2
 94  2  2  2 20 30.0000000  0  8 19  2 27 26  4  7 13 15
  24398992.059    18927486.034 4   5391923.706 1
  21203653.396    -5808831.513 9    626807.407 9
  21955768.997    18212452.446 7   3966383.722 4
  22581486.912    -7205544.134 7   -882006.378 4
  24823208.760     2840775.37614  -2004108.875 2
  20529502.241    -2273471.427 8  -1390478.988 9
  22783089.275      666717.169 6  -6352840.695 2
  24056154.141    19378182.308 5    320999.159 2
 94  2  2  2 21  0.0000000  0  8 19  2 27 26  4  7 13 15
  24418382.456    19029451.338 5   5471377.103 1
  21207485.613    -5788699.388 9    642494.800 9
  21972156.223    18298581.111 7   4033496.966 4
  22582986.384    -7197657.191 7   -875860.663 4
  24805256.888     2746417.434 4  -2077634.387 2
  20529504.760    -2273474.115 8  -1390481.056 9
  22764529.814      569194.400 6  -6428832.417 2
  24061943.613    19408607.014 5    344706.824 2
 94  2  2  2 21 30.0000000  0  8 19  2 27 26  4  7 13 15
  24437844.322    19131654.530 5   5551015.957 1
  21211357.253    -5768365.372 9    658339.495 9
  21988622.264    18385099.370 7   4100913.763 4
  22584588.685    -7189231.355 7   -869295.053 4
  24787299.919     2652016.424 5  -2151193.500 2
  20529605.580    -2272933.581 8  -1390059.850 9
  22746042.902      472028.816 6  -6504545.817 2
  24067841.520    19439612.694 5    368867.102 2
 94  2  2  2 22  0.0000000  0  8 19  2 27 26  4  7 13 15
  24457330.083    19234098.832 5   5630842.734 1
  21215259.382    -5747833.885 9    674338.093 9
  22005160.285    18472010.475 7   4168636.745 4
  22586293.035    -7180271.461 7   -862313.294 4
  24769337.165     2557581.232 5  -2224779.222 2
  20529808.389    -2271865.340 8  -1389227.411 9
  22727615.229      375222.001 6  -6579979.602 2
  24073843.905    19471198.171 5    393479.101 2
 94  2  2  2 22 30.0000000  0  8 19  2 27 26  4  7 13 15
  24476871.065    19336770.919 5   5710846.980 1
  21219206.089    -5727091.680 9    690500.887 9
  22021772.264    18559309.501 7   4236661.989 4
  22588101.533    -7170789.803 7   -854924.971 4
  24751356.812     2463095.035 5  -2298404.725 2
  20530108.392    -2270297.996 8  -1388006.063 9
  22709263.884      278776.038 6  -6655132.200 2
  24079968.814    19503361.922 5    418541.841 2
 94  2  2  2 23  0.0000000  0  8 19  2 27 26  4  7 13 15
  24496457.855    19439640.000 5   5791004.741 1
  21223192.969    -5706144.603 9    706823.293 9
  22038453.496    18646983.986 7   4304979.754 4
  22590001.168    -7160786.039 7   -847129.818 4
  24733364.858     2368542.229 5  -2372082.105 2
  20530498.512    -2268246.738 8  -1386407.664 9
  22690983.019      182689.204 7  -6730005.054 2
  24086191.577    19536098.864 5    444051.201 2
 94  2  2  2 23 30.0000000  0  8 19  2 27 26  4  7 13 15
  24516051.031    19542684.959 4   5871299.430 1
  21227219.722    -5684996.882 9    723302.063 9
  22055203.111    18735031.492 7   4373588.222 4
  22592007.019    -7150250.324 7   -838920.160 4
  24715343.794     2273926.857 5  -2445808.291 2
  20530981.447    -2265702.504 8  -1384425.137 9
  22672767.809       86963.133 6  -6804596.747 2
  24092535.545    19569407.649 5    470006.117 2
 94  2  2  2 24  0.0000000  0  8 19  2 27 26  4  7 13 15
  24535693.223    19645882.420 4   5951713.044 1
  21231281.610    -5663648.325 9    739937.312 9
  22072033.849    18823454.795 7   4442489.479 4
  22594121.006    -7139160.139 7   -830278.434 4
  24697342.995     2179242.814 5  -2519587.958 2
  20531563.404    -2262661.530 8  -1382055.525 9
  22654623.590       -8403.228 7  -6878908.099 2
  24098981.083    19603283.793 5    496403.114 2
 94  2  2  2 24 30.0000000  0  8 19  2 27 26  4  7 13 15
  24555361.227    19749224.490 5   6032239.370 1
  21235383.160    -5642109.009 9    756721.196 9
  22088926.554    18912238.553 7   4511671.636 4
  22596334.643    -7127506.168 7   -821197.431 4
  24679303.014     2084480.345 5  -2593428.760 2
  20532235.629    -2259117.621 8  -1379294.038 9
  22636536.722     -103412.177 7  -6952941.031 2
  24105542.040    19637722.007 5    523238.071 2
 94  2  2  2 25  0.0000000  0  8 19  2 27 26  4  7 13 15
  24575054.714    19852722.284 5   6112886.955 1
  21239511.542    -5620398.306 9    773638.644 9
  22105898.135    19001396.788 7   4581145.584 4
  22598660.643    -7115283.588 7   -811673.313 4
  24661249.572     1989649.131 5  -2667323.143 2
  20533009.303    -2255060.024 8  -1376132.239 9
  22618524.561     -198061.984 6  -7026694.090 2
  24112200.371    19672720.400 5    550509.614 2
 94  2  2  2 25 30.0000000  0  8 19  2 27 26  4  7 13 15
  24594780.907    19956391.953 5   6193668.417 1
  21243672.931    -5598518.740 9    790687.673 9
  22122937.889    19090929.958 7   4650911.697 4
  22601090.700    -7102510.421 7   -801720.177 4
  24643202.606     1894755.397 5  -2741266.172 2
  20533875.224    -2250494.036 8  -1372574.317 9
  22600579.614     -292348.987 7  -7100164.421 2
  24118959.582    19708279.663 5    578218.115 2
 94  2  2  2 26  0.0000000  0  8 19  2 27 26  4  7 13 15
  24614539.119    20060235.881 5   6274585.847 1
  21247870.116    -5576481.531 9    807859.535 9
  22140039.550    19180829.012 7   4720962.904 4
  22603624.456    -7089204.462 7   -791351.882 4
  24625139.361     1799802.400 5  -2815255.439 2
  20534836.688    -2245443.081 8  -1368638.497 9
  22582717.680     -386274.287 7  -7173352.923 3
  24125823.390    19744395.574 5    606360.399 2
 94  2  2  2 26 30.0000000  0  8 19  2 27 26  4  7 13 15
  24634345.088    20164256.858 4   6355641.120 1
  21252087.146    -5554310.165 9    825135.931 9
  22157218.737    19271093.435 7   4791298.816 4
  22606249.859    -7075386.831 7   -780584.888 4
  24607063.764     1704807.427 5  -2889277.512 2
  20535892.557    -2239917.297 8  -1364332.671 9
  22564907.789     -479839.754 7  -7246261.045 2
  24132807.595    19781062.508 5    634931.997 2
 94  2  2  2 27  0.0000000  0  8 19  2 27 26  4  7 13 15
  24654169.194    20268452.793 4   6436832.735 1
  21256333.946    -5531992.703 9    842526.172 8
  22174461.540    19361728.483 7   4861923.501 4
  22608976.201    -7061063.298 7   -769423.706 4
  24588968.142     1609789.965 5  -2963316.922 2
  20537030.330    -2233927.595 8  -1359665.372 9
  22547171.108     -573040.060 7  -7318884.650 2
  24139887.733    19818282.880 5    663934.919 2
 94  2  2  2 27 30.0000000  0  9 19  2 27 26  4  7 13  9 15
  24674020.401    20372817.975 4   6518156.249 1
  21260610.965    -5509520.450 9    860037.032 8
  22191781.449    19452718.326 7   4932824.695 4
  22611800.816    -7046222.272 7   -757859.230 4
  24570884.271     1514758.570 5  -3037367.239 2
  20538258.340    -2227469.405 8  -1354632.988 9
  22529507.127     -665870.887 7  -7391220.274 3
  24924970.822    13426729.64715  -1023587.065 2
  24147079.395    19856057.120 5    693369.426 2
 94  2  2  2 28  0.0000000  0  9 19  2 27 26  4  7 13  9 15
  24693917.866    20477339.828 4   6599601.768 1
  21264919.193    -5486879.628 9    877679.250 8
  22209163.806    19544068.757 7   5004006.850 4
  22614731.107    -7030837.872 7   -745871.370 4
  24552799.680     1419712.680 5  -3111428.896 2
  20539577.966    -2220521.240 8  -1349218.800 9
  22511913.147     -758326.915 7  -7463263.895 2
  24907028.153    13332442.786 5  -1097057.273 2
  24154373.645    19894387.610 5    723237.392 2
 94  2  2  2 28 30.0000000  0  9 19  2 27 26  4  7 13  9 15
  24713829.542    20582013.644 4   6681165.890 1
  21269266.933    -5464048.156 9    895470.002 8
  22226616.224    19635785.516 7   5075474.463 4
  22617760.240    -7014905.700 7   -733456.723 4
  24534699.441     1324636.812 5  -3185513.919 2
  20540994.605    -2213071.279 8  -1343413.643 9
  22494387.759     -850402.528 7  -7535011.092 2
  24889083.386    13238197.448 5  -1170495.130 2
  24161773.812    19933276.203 5    753540.138 2
 94  2  2  2 29  0.0000000  0  9 19  2 27 26  4  7 13  9 15
  24733782.109    20686841.223 4   6762849.659 1
  21273649.149    -5441008.083 9    913423.325 8
  22244138.254    19727866.492 7   5147225.872 4
  22620902.455    -6998418.683 7   -720609.677 4
  24516618.029     1229514.841 5  -3259634.857 2
  20542509.307    -2205114.555 8  -1337213.566 9
  22476945.564     -942092.039 7  -7606457.444 3
  24871157.266    13143999.839 5  -1243895.786 2
  24169282.564    19972725.427 5    784279.832 2
 94  2  2  2 29 30.0000000  0  9 19  2 27 26  4  7 13  9 15
  24753758.000    20791829.636 4   6844658.745 1
  21278069.799    -5417765.432 9    931534.464 8
  22261729.505    19820305.140 7   5219255.966 3
  22624143.901    -6981369.678 7   -707324.747 4
  24498491.197     1134340.885 4  -3333796.330 2
  20544125.938    -2196638.700 8  -1330609.032 9
  22459568.784    -1033390.361 7  -7677598.942 3
  24853260.945    13049849.849 5  -1317259.398 2
  24176899.181    20012736.760 5    815457.488 2
 94  2  2  2 30  0.0000000  0  9 19  2 27 26  4  7 13  9 15
  24773769.776    20896973.578 4   6926589.037 1
  21282531.610    -5394319.685 9    949803.882 8
  22279387.701    19913093.391 7   5291558.500 3
  22627496.480    -6963772.275 7   -693612.525 4
  24480370.902     1039118.353 5  -3407995.612 2
  20545832.896    -2187666.499 8  -1323617.695 9
  22442274.657    -1124299.714 7  -7748437.378 3
  24835328.110    12955738.402 5  -1390592.897 2
  24184617.428    20053304.692 5    847068.887 2
 94  2  2  2 30 30.0000000  0  9 19  2 27 26  4  7 13  9 15
  24793810.602    21002275.069 5   7008642.204 1
  21287025.649    -5370690.918 9    968215.918 8
  22297109.452    20006218.817 6   5364123.748 3
  22630945.922    -6945643.719 7   -679486.371 4
  24462257.621      943868.417 5  -3482216.333 2
  20547628.143    -2178222.671 8  -1316258.861 9
  22425043.635    -1214821.894 7  -7818974.117 3
  24817438.055    12861658.437 5  -1463901.849 2
  24192441.561    20094424.022 5    879109.873 2
 94  2  2  2 31  0.0000000  0  9 19  2 27 26  4  7 13  9 15
  24813868.426    21107740.405 4   7090823.022 1
  21291557.551    -5346902.732 9    986752.202 8
  22314887.085    20099668.177 6   5436941.460 3
  22634495.015    -6926977.336 7   -664941.077 4
  24444118.109      848613.416 5  -3556440.902 2
  20549515.696    -2168309.501 8  -1308534.272 9
  22407890.110    -1304956.096 7  -7889208.467 3
  24799530.792    12767596.143 5  -1537197.067 2
  24200375.509    20136092.277 5    911578.704 2
 94  2  2  2 31 30.0000000  0  9 19  2 27 26  4  7 13  9 15
  24833984.051    21213373.286 4   7173134.300 1
  21296113.497    -5322938.857 9   1005425.351 8
  22332735.439    20193444.824 6   5510014.163 3
  22638150.534    -6907766.449 7   -649971.566 4
  24425993.137      753377.259 5  -3630650.797 2
  20551491.838    -2157920.490 8  -1300438.931 9
  22390816.870    -1394693.332 7  -7959133.543 3
  24781658.575    12673555.288 5  -1610475.599 2
  24208406.019    20178314.810 5    944479.399 2
 94  2  2  2 32  0.0000000  0  9 19  2 27 26  4  7 13  9 15
  24854114.724    21319167.686 4   7255571.413 1
  21300713.993    -5298794.256 9   1024239.315 8
  22350643.931    20287564.565 6   5583354.199 3
  22641908.763    -6888025.815 7   -634589.280 4
  24407897.814      658161.431 5  -3704845.008 2
  20553559.237    -2147059.718 8  -1291976.000 9
  22373816.929    -1484031.765 7  -8028747.912 3
  24763742.288    12579538.576 5  -1683735.300 2
  24216540.138    20221089.815 5    977810.560 2
 94  2  2  2 32 30.0000000  0  9 19  2 27 26  4  7 13  9 15
  24874276.247    21425123.562 4   7338134.445 1
  21305339.251    -5274480.473 9   1043185.130 8
  22368623.144    20382037.549 6   5656969.497 3
  22645765.053    -6867757.963 7   -618796.140 4
  24389759.291      562952.443 5  -3779033.809 2
  20555718.043    -2135712.086 8  -1283133.672 9
  22356892.056    -1572968.583 7  -8098049.253 3
  24745879.694    12485565.205 5  -1756961.187 2
  24224796.722    20264416.947 5   1011571.900 2
 94  2  2  2 33  0.0000000  0  9 19  2 27 26  4  7 13  9 15
  24894466.220    21531242.247 4   7420824.387 1
  21310002.792    -5249980.156 9   1062276.333 8
  22386670.920    20476862.183 6   5730858.845 3
  22649718.926    -6846956.547 7   -602587.199 4
  24371643.193      467736.614 5  -3853227.864 2
  20557974.820    -2123861.780 8  -1273899.627 9
  22340045.638    -1661498.065 7  -8167033.191 3
  24727986.671    12391650.964 5  -1830141.045 2
  24233149.480    20308298.034 5   1045765.040 2
 94  2  2  2 33 30.0000000  0  9 19  2 27 26  4  7 13  9 15
  24914685.992    21637510.538 4   7503630.810 1
  21314700.060    -5225284.868 9   1081519.399 8
  22404780.753    20572036.825 6   5805020.889 3
  22653780.664    -6825631.690 7   -585970.441 4
  24353513.034      372512.530 5  -3927428.411 2
  20560320.786    -2111515.367 8  -1264279.044 9
  22323273.989    -1749616.817 7  -8235697.163 3
  24710135.199    12297808.095 5  -1903265.315 2
  24241612.261    20352733.397 5   1080390.000 2
 94  2  2  2 34  0.0000000  0  8  2 27 26  4  7 13  9 15
  21319431.115    -5200404.084 8   1100907.059 8
  22422956.120    20667551.266 6   5879447.742 3
  22657937.166    -6803782.181 7   -568944.841 4
  24335401.822      277273.863 5  -4001640.353 2
  20562765.684    -2098677.118 8  -1254275.196 9
  22306588.530    -1837318.287 7  -8304035.896 3
  24692285.826    12204052.453 5  -1976321.563 2
  24250163.211    20397726.045 4   1115449.251 2
 94  2  2  2 34 30.0000000  0  8  2 27 26  4  7 13  9 15
  21324201.293    -5175339.983 8   1120437.510 8
  22441192.825    20763386.773 6   5954124.738 3
  22662198.926    -6781397.644 7   -551502.333 4
  24317262.340      182019.440 5  -4075864.559 2
  20565304.206    -2085342.924 8  -1243884.906 9
  22289980.118    -1924599.631 7  -8372047.293 3
  24674464.514    12110374.743 5  -2049317.146 2
  24258832.879    20443275.380 5   1150942.204 2
 94  2  2  2 35  0.0000000  0  8  2 27 26  4  7 13  9 15
  21329008.075    -5150082.359 8   1140118.808 8
  22459484.333    20859531.661 6   6029042.840 3
  22666559.617    -6758483.429 7   -533647.073 4
  24299150.408       86759.121 5  -4150093.275 2
  20567928.829    -2071525.073 8  -1233117.732 9
  22273449.892    -2011459.243 7  -8439730.111 3
  24656660.349    12016754.568 5  -2122267.846 2
  24267603.578    20489379.220 5   1186867.267 2
 94  2  2  2 35 30.0000000  0  8  2 27 26  4  7 13  9 15
  21333856.169    -5124632.865 9   1159949.583 8
  22477849.529    20956005.927 6   6104217.570 3
  22671017.711    -6735053.801 7   -515390.213 4
  24281021.988       -8502.885 5  -4224323.408 2
  20570648.576    -2057240.718 8  -1221987.060 9
  22256997.761    -2097895.405 7  -8507082.909 3
  24638835.739    11923180.057 5  -2195182.990 2
  24276477.854    20536035.952 5   1223223.214 2
 94  2  2  2 36  0.0000000  0  8  2 27 26  4  7 13  9 15
  21338731.903    -5099002.804 9   1179921.045 8
  22496267.008    21052820.362 6   6179657.370 3
  22675569.880    -6711122.882 7   -496742.791 4
  24262889.251     -103765.309 5  -4298553.856 2
  20573455.053    -2042491.454 8  -1210494.126 9
  22240630.322    -2183914.042 7  -8574110.377 3
  24621033.463    11829639.758 5  -2268071.481 2
  24285447.914    20583236.178 5   1260002.630 2
 94  2  2  2 36 30.0000000  0  8  2 27 26  4  7 13  9 15
  21343644.422    -5073183.427 8   1200040.056 8
  22514765.102    21149993.345 6   6255376.565 3
  22680218.941    -6686697.343 7   -477709.856 4
  24244780.738     -199010.119 5  -4372770.499 2
  20576352.997    -2027274.467 8  -1198636.720 9
  22224339.990    -2269516.891 7  -8640813.898 3
  24603245.847    11736122.443 5  -2340942.057 2
  24294536.602    20630974.341 5   1297201.183 2
 94  2  2  2 37  0.0000000  0  8  2 27 26  4  7 13  9 15
  21348589.169    -5047183.902 8   1220299.432 8
  22533320.217    21247518.479 6   6331370.184 3
  22684962.138    -6661785.662 7   -458298.156 4
  24226646.022     -294233.486 5  -4446970.448 2
  20579335.962    -2011604.102 8  -1186426.040 9
  22208131.890    -2354713.052 7  -8707200.486 3
  24585448.878    11642637.765 5  -2413787.143 2
  24303733.006    20679238.067 5   1334809.269 2
 94  2  2  2 37 30.0000000  0  8  2 27 26  4  7 13  9 15
  21353570.341    -5021010.321 8   1240694.444 8
  22551942.755    21345389.102 6   6407633.012 3
  22689794.402    -6636379.173 7   -438500.898 4
  24208521.979     -389434.566 5  -4521153.080 2
  20582402.899    -1995470.302 8  -1173854.221 9
  22191992.503    -2439499.759 7  -8773267.995 3
  24567679.489    11549195.838 5  -2486598.924 2
  24313009.544    20728026.382 5   1372826.160 2
 94  2  2  2 38  0.0000000  0  8  2 27 26  4  7 13  9 15
  21358580.083    -4994676.115 9   1261214.593 8
  22570628.999    21443595.796 6   6484157.684 3
  22694724.969    -6610462.221 7   -418305.872 4
  24190407.829     -484613.771 5  -4595318.627 2
  20585567.688    -1978847.816 8  -1160901.637 9
  22175937.058    -2523873.258 7  -8839013.575 3
  24549909.561    11455802.762 5  -2559372.686 2
  24322396.765    20777339.230 5   1411251.780 2
 94  2  2  2 38 30.0000000  0  8  2 27 26  4  7 13  9 15
  21363626.369    -4968171.554 9   1281867.516 8
  22589385.514    21542129.455 6   6560937.162 3
  22699762.531    -6584014.570 7   -397697.299 4
  24172301.834     -579769.926 5  -4669466.213 2
  20588825.293    -1961727.837 8  -1147561.371 9
  22159963.936    -2607820.112 7  -8904426.686 3
  24532140.952    11362468.908 5  -2632100.305 2
  24331887.235    20827186.455 5   1450093.755 2
 94  2  2  2 39  0.0000000  0  8  2 27 26  4  7 13  9 15
  21368699.667    -4941518.855 8   1302635.867 8
  22608189.066    21640974.429 6   6637959.225 3
  22704885.925    -6557054.897 7   -376689.750 4
  24154209.419     -674925.234 5  -4743613.074 2
  20592177.452    -1944131.908 8  -1133850.244 9
  22144070.139    -2691346.843 7  -8969512.406 3
  24514391.320    11269196.329 5  -2704780.120 2
  24341472.229    20877558.544 5   1489344.765 2
 94  2  2  2 39 30.0000000  0  8  2 27 26  4  7 13  9 15
  21373798.867    -4914716.356 8   1323520.942 8
  22627066.488    21740137.510 6   6715229.155 3
  22710113.615    -6529593.812 7   -355291.506 4
  24136097.248     -770079.091 5  -4817758.893 2
  20595612.234    -1926065.508 8  -1119772.506 9
  22128255.877    -2774450.422 7  -9034268.405 3
  24496652.360    11175975.156 5  -2777419.923 2
  24351155.856    20928454.895 5   1529004.255 2
 94  2  2  2 40  0.0000000  0  8  2 27 26  4  7 13  9 15
  21378929.755    -4887754.037 8   1344530.559 8
  22645991.546    21839627.935 6   6792754.150 3
  22715434.722    -6501631.487 7   -333502.679 4
  24117983.817     -865219.365 5  -4891894.107 2
  20599139.892    -1907532.347 8  -1105331.058 9
  22112524.028    -2857123.442 7  -9098688.920 3
  24478929.830    11082818.816 5  -2850009.194 2
  24360936.884    20979878.917 5   1569074.949 2
 94  2  2  2 40 30.0000000  0  8  2 27 26  4  7 13  9 15
  21384098.477    -4860595.239 8   1365693.268 8
  22664983.309    21939429.155 6   6870521.314 3
  22720848.104    -6473167.931 7   -311323.257 4
  24099889.004     -960335.078 5  -4966010.188 2
  20602748.734    -1888561.141 8  -1090548.293 9
  22096872.493    -2939359.718 7  -9162769.081 3
  24461219.050    10989736.302 5  -2922540.945 2
  24370803.234    21031833.094 5   1609558.762 2
 94  2  2  2 41  0.0000000  0  8  2 27 26  4  7 13  9 15
  21389303.204    -4833227.486 8   1387018.790 8
  22684034.430    22039540.343 6   6948530.032 3
  22726360.838    -6444204.336 7   -288754.234 4
  24081799.647    -1055418.606 5  -5040101.206 2
  20606442.207    -1869153.716 8  -1075425.620 9
  22081311.676    -3021154.922 7  -9226505.575 3
  24443519.064    10896725.685 5  -2995016.655 2
  24380821.968    21084318.093 5   1650456.136 2
 94  2  2  2 41 30.0000000  0  8  2 27 26  4  7 13  9 15
  21394555.298    -4805649.147 9   1408508.418 8
  22703141.043    22139944.026 6   7026766.662 3
  22731970.045    -6414731.804 6   -265788.617 4
  24063705.313    -1150469.890 5  -5114167.092 2
  20610219.322    -1849300.782 8  -1059955.778 9
  22065830.963    -3102506.544 7  -9289896.437 3
  24425834.337    10803775.002 5  -3067445.666 2
  24390912.712    21137332.521 5   1691766.103 2
 94  2  2  2 42  0.0000000  0  8  2 27 26  4  7 13  9 15
  21399842.257    -4777854.514 8   1430166.576 8
  22722299.310    22240628.618 6   7105222.178 3
  22737677.733    -6384754.285 7   -242429.523 4
  24045631.126    -1245489.627 6  -5188208.404 2
  20614081.458    -1829007.351 8  -1044142.709 9
  22050431.524    -3183412.805 7  -9352940.231 3
  24408155.066    10710896.058 5  -3139818.829 2
  24401098.281    21190875.059 5   1733487.575 2
 94  2  2  2 42 30.0000000  0  8  2 27 26  4  7 13  9 15
  21405168.550    -4749853.864 8   1451985.289 8
  22741514.477    22341590.284 6   7183893.574 3
  22743471.133    -6354282.959 6   -218685.634 4
  24027548.814    -1340477.976 5  -5262225.234 2
  20618026.307    -1808274.705 8  -1027987.382 9
  22035123.641    -3263871.410 7  -9415635.235 3
  24390499.119    10618086.852 5  -3212137.652 2
  24411383.411    21244944.477 5   1775619.612 2
 94  2  2  2 43  0.0000000  0  8  2 27 26  4  7 13  9 15
  21410529.739    -4721674.832 8   1473942.973 7
  22760785.106    22442848.418 6   7262796.036 3
  22749367.960    -6323321.506 7   -194559.834 4
  24009490.755    -1435426.798 5  -5336211.277 2
  20622060.375    -1787087.187 8  -1011477.626 9
  22019896.583    -3343879.703 7  -9477979.335 3
  24372839.514    10525348.784 5  -3284401.001 2
  24421776.946    21299539.952 5   1818161.522 2
 94  2  2  2 43 30.0000000  0  8  2 27 26  4  7 13  9 15
  21415925.913    -4693322.872 8   1496035.424 7
  22780109.878    22544419.696 6   7341942.471 3
  22755349.389    -6291870.374 6   -170052.465 4
  23991420.046    -1530334.319 5  -5410165.189 2
  20626180.512    -1765445.900 8   -994614.270 9
  22004759.012    -3423438.644 7  -9539973.289 3
  24355199.097    10432693.643 5  -3356599.749 2
  24432254.992    21354656.560 5   1861109.530 2
 94  2  2  2 44  0.0000000  0  8  2 27 26  4  7 13  9 15
  21421356.414    -4664801.839 8   1518259.566 7
  22799505.071    22646319.620 6   7421344.948 3
  22761428.011    -6259935.771 6   -145168.375 4
  23973376.857    -1625179.991 5  -5484070.882 2
  20630380.964    -1743352.113 8   -977398.358 9
  21989703.525    -3502546.535 7  -9601615.805 4
  24337608.474    10340136.531 6  -3428722.253 2
  24442849.058    21410292.482 5   1904462.221 2
 94  2  2  2 44 30.0000000  0  8  2 27 26  4  7 13  9 15
  21426812.906    -4636118.385 8   1540610.315 7
  22818955.456    22748559.997 6   7501012.757 3
  22767601.218    -6227499.037 6   -119893.013 4
  23955326.592    -1719954.071 5  -5557920.798 2
  20634673.093    -1720795.741 8   -959821.955 9
  21974739.474    -3581197.110 7  -9662901.957 3
  24320001.483    10247670.087 5  -3500773.930 2
  24453527.815    21466450.187 5   1948221.462 2
 94  2  2  2 45  0.0000000  0  8  2 27 26  4  7 13  9 15
  21432302.136    -4607269.050 8   1563090.351 7
  22838481.838    22851147.844 6   7580951.382 3
  22773868.649    -6194550.791 6    -94219.015 4
  23937318.419    -1814642.103 5  -5631703.572 2
  20639055.699    -1697770.309 8   -941880.013 9
  21959859.216    -3659386.198 7  -9723828.434 4
  24302427.320    10155299.376 5  -3572750.962 2
  24464322.952    21523130.141 5   1992387.656 2
 94  2  2  2 45 30.0000000  0  8  2 27 26  4  7 13  9 15
  21437824.133    -4578253.303 8   1585700.005 7
  22858067.729    22954064.890 6   7661146.433 3
  22780233.393    -6161106.155 6    -68158.296 4
  23919321.159    -1909251.532 5  -5705425.218 2
  20643525.155    -1674282.441 8   -923577.804 9
  21945068.835    -3737111.880 7  -9784393.919 4
  24284869.764    10063028.272 6  -3644650.559 2
  24475208.026    21580330.899 5   2036959.627 2
 94  2  2  2 46  0.0000000  0  8  2 27 26  4  7 13  9 15
  21443378.058    -4549076.538 8   1608435.143 7
  22877705.844    23057280.755 6   7741574.349 3
  22786692.811    -6127173.738 6    -41717.422 4
  23901334.361    -2003776.903 5  -5779081.298 2
  20648081.641    -1650342.921 8   -904923.623 9
  21930362.276    -3814374.353 7  -9844598.432 4
  24267320.424     9970850.113 5  -3716477.664 2
  24486181.989    21638048.519 5   2081934.440 2
 94  2  2  2 46 30.0000000  0  8  2 27 26  4  7 13  9 15
  21448963.102    -4519719.821 8   1631310.532 7
  22897394.953    23160777.308 6   7822221.033 3
  22793242.587    -6092756.237 6    -14898.591 4
  23883365.280    -2098229.082 6  -5852680.352 2
  20652719.580    -1625962.931 8   -885926.199 9
  21915752.520    -3891171.545 7  -9904440.376 4
  24249798.993     9878753.604 6  -3788241.075 2
  24497260.669    21696281.310 5   2127310.667 2
 94  2  2  2 47  0.0000000  0  8  2 27 26  4  7 13  9 15
  21454589.996    -4490175.383 8   1654332.160 7
  22917149.687    23264538.032 6   7903073.522 2
  22799880.141    -6057868.406 6     12286.703 4
  23865394.251    -2192610.687 6  -5926224.423 2
  20657443.469    -1601146.691 8   -866588.872 9
  21901226.616    -3967504.113 7  -9963920.265 4
  24232287.277     9786746.891 6  -3859934.561 2
  24508445.506    21755024.779 4   2173084.833 2
 94  2  2  2 47 30.0000000  0  8  2 27 26  4  7 13  9 15
  21460247.890    -4460433.026 9   1677508.036 7
  22936944.084    23368555.148 6   7984125.804 3
  22806613.180    -6022508.553 6     39839.838 4
  23847439.111    -2286924.839 5  -5999715.915 2
  20662245.935    -1575903.009 8   -846918.459 9
  21886789.811    -4043371.251 7 -10023037.493 4
  24214801.672     9694836.164 5  -3931553.303 2
  24519725.108    21814276.246 5   2219254.744 2
 94  2  2  2 48  0.0000000  0  8  2 27 26  4  7 13  9 15
  21465943.676    -4430485.457 8   1700843.815 7
  22956781.081    23472830.040 6   8065378.980 2
  22813430.341    -5986664.416 6     67770.355 4
  23829526.422    -2381154.922 6  -6073141.892 2
  20667131.712    -1550228.954 8   -826912.686 9
  21872438.266    -4118775.366 7 -10081793.930 4
  24197334.864     9603020.396 6  -4003097.989 2
  24531080.766    21874029.403 5   2265815.704 2
 94  2  2  2 48 30.0000000  0  8  2 27 26  4  7 13  9 15
  21471683.803    -4400329.746 8   1724341.772 7
  22976673.210    23577373.530 6   8146841.422 2
  22820346.613    -5950341.036 6     96074.268 4
  23811601.801    -2475306.606 6  -6146506.868 2
  20672099.273    -1524115.584 8   -806564.607 9
  21858177.409    -4193717.964 7 -10140190.725 4
  24179874.022     9511303.688 6  -4074565.493 2
  24542554.393    21934279.660 5   2312763.944 2
 94  2  2  2 49  0.0000000  0  8  2 27 26  4  7 13  9 15
  21477457.326    -4369983.145 8   1747988.472 7
  22996621.880    23682181.726 6   8228510.108 2
  22827346.917    -5913544.726 6    124746.720 4
  23793705.540    -2569380.209 6  -6219810.889 2
  20677153.445    -1497567.059 8   -785877.439 9
  21844001.363    -4268202.340 7 -10198230.487 4
  24162443.638     9419690.909 5  -4145952.024 2
  24554113.671    21995019.573 5   2360093.782 2
 94  2  2  2 49 30.0000000  0  8  2 27 26  4  7 13  9 15
  21483268.263    -4339449.869 8   1771780.644 7
  23016623.433    23787258.278 6   8310387.936 2
  22834433.501    -5876285.297 6    153780.053 4
  23775817.644    -2663378.725 6  -6293056.436 2
  20682286.101    -1470590.847 8   -764857.012 9
  21829917.742    -4342225.466 7 -10255910.829 4
  24145024.168     9328185.417 5  -4217254.984 2
  24565757.760    22056248.394 5   2407804.508 2
 94  2  2  2 50  0.0000000  0  8  2 27 26  4  7 13  9 15
  21489112.867    -4308723.247 8   1795723.475 7
  23036663.060    23892615.334 6   8392484.332 2
  22841608.853    -5838577.234 6    183162.961 4
  23757930.737    -2757314.275 5  -6366252.966 2
  20687500.212    -1443176.982 8   -743495.539 9
  21815921.961    -4415782.459 7 -10313227.949 4
  24127640.042     9236783.166 6  -4288477.443 2
  24577506.746    22117967.532 5   2455897.343 2
 94  2  2  2 50 30.0000000  0  8  2 27 26  4  7 13  9 15
  21494997.823    -4277804.906 8   1819815.701 7
  23056772.509    23998254.848 6   8474800.857 2
  22848865.420    -5800429.853 6    212888.174 4
  23740069.942    -2851210.774 6  -6439419.000 2
  20692801.292    -1415334.593 8   -721800.153 9
  21802012.941    -4488871.270 7 -10370180.256 4
  24110258.405     9145485.769 6  -4359618.245 2
  24589353.645    22180175.232 5   2504370.963 2
 94  2  2  2 51  0.0000000  0  8  2 27 26  4  7 13  9 15
  21500917.525    -4246706.974 8   1844047.860 7
  23076925.667    24104186.233 6   8557344.745 2
  22856214.682    -5761839.088 7    242958.900 4
  23722211.485    -2945070.234 6  -6512556.209 2
  20698179.868    -1387066.322 8   -699772.916 9
  21788195.386    -4561486.315 7 -10426763.370 4
  24092916.551     9054289.561 5  -4430680.177 2
  24601274.412    22242873.495 5   2553226.734 2
 94  2  2  2 51 30.0000000  0  8  2 27 26  4  7 13  9 15
  21506870.084    -4215432.100 8   1868417.906 7
  23097137.824    24210421.488 6   8640125.473 2
  22863640.661    -5722802.213 6    273377.287 4
  23704361.212    -3038879.721 5  -6585654.474 2
  20703640.228    -1358370.001 8   -677412.136 9
  21774467.050    -4633627.702 8 -10482977.406 4
  24075578.714     8963198.088 6  -4501660.479 2
  24613312.848    22306058.541 5   2602461.844 2
 94  2  2  2 52  0.0000000  0  8  2 27 26  4  7 13  9 15
  21512851.333    -4183981.715 8   1892924.721 7
  23117415.516    24316958.771 6   8723141.549 2
  22871163.923    -5683292.644 7    304163.981 4
  23686516.696    -3132613.850 6  -6658693.990 2
  20709185.669    -1329238.871 8   -654712.532 9
  21760828.142    -4705287.879 7 -10538816.480 4
  24058259.943     8872209.280 6  -4572560.766 2
  24625429.110    22369734.649 5   2652079.565 2
 94  2  2  2 52 30.0000000  0  8  2 27 26  4  7 13  9 15
  21518863.671    -4152372.169 8   1917555.539 7
  23137746.811    24423776.826 6   8806376.391 2
  22878774.964    -5643287.030 6    335337.153 4
  23668703.897    -3226239.209 6  -6731648.773 2
  20714808.726    -1299689.705 8   -631687.208 9
  21747286.967    -4776465.172 8 -10594279.295 4
  24040960.749     8781324.523 6  -4643379.967 2
  24637637.948    22433899.347 5   2702078.059 2
 94  2  2  2 53  0.0000000  0  8  2 27 26  4  7 13  9 15
  21524909.645    -4120614.305 8   1942301.931 7
  23158118.518    24530866.054 6   8889822.513 2
  22886480.259    -5602789.287 6    366893.847 4
  23650920.089    -3319725.200 6  -6804495.010 2
  20720508.590    -1269732.637 8   -608344.027 9
  21733833.870    -4847158.319 7 -10649364.851 4
  24023694.592     8690545.734 6  -4714116.651 2
  24649930.098    22498550.295 5   2752455.446 2
 94  2  2  2 53 30.0000000  0  8  2 27 26  4  7 13  9 15
  21530984.969    -4088696.538 8   1967172.917 7
  23178542.299    24638195.165 6   8973455.547 2
  22894275.373    -5561811.633 6    398824.487 4
  23633144.944    -3413062.362 5  -6877225.190 2
  20726281.964    -1239378.312 8   -584691.301 9
  21720471.730    -4917368.147 8 -10704073.776 4
  24006432.812     8599882.025 6  -4784763.679 2
  24662330.024    22563683.071 5   2803208.219 2
 94  2  2  2 54  0.0000000  0  8  2 27 26  4  7 13  9 15
  21537088.354    -4056617.677 8   1992169.456 7
  23199003.284    24745756.332 6   9057269.480 2
  22902166.360    -5520373.314 6    431114.111 4
  23615415.188    -3506265.024 6  -6949850.600 3
  20732138.769    -1208621.763 8   -560725.148 9
  21707204.115    -4987094.149 8 -10758405.705 4
  23989204.399     8509321.418 6  -4855330.329 3
  24674801.900    22629294.374 4   2854333.945 2
 94  2  2  2 54 30.0000000  0  8  2 27 26  4  7 13  9 15
  21543224.506    -4024370.976 8   2017296.738 7
  23219529.804    24853564.011 6   9141275.431 2
  22910132.176    -5478504.567 6    463739.068 4
  23597712.144    -3599336.908 6  -7022374.104 3
  20738069.293    -1177454.575 8   -536439.031 9
  21694024.939    -5056334.498 8 -10812359.195 4
  23971993.824     8418882.300 6  -4925802.287 3
  24687390.395    22695382.354 4   2905831.081 2
 94  2  2  2 55  0.0000000  0  8  2 27 26  4  7 13  9 15
  21549394.385    -3991948.501 8   2042561.023 7
  23240092.299    24961626.824 6   9225480.178 2
  22918172.729    -5436230.947 6    496679.570 4
  23580028.106    -3692294.649 6  -7094808.703 2
  20744080.522    -1145875.201 8   -511831.712 9
  21680944.125    -5125089.013 8 -10865934.110 4
  23954812.808     8328574.486 6  -4996171.959 2
  24700072.126    22761943.573 5   2957696.960 2
 94  2  2  2 55 30.0000000  0  8  2 27 26  4  7 13  9 15
  21555597.930    -3959348.578 8   2067963.555 7
  23260701.112    25069946.780 6   9309885.341 2
  22926297.165    -5393550.966 7    529936.696 4
  23562345.238    -3785155.319 6  -7167167.611 3
  20750168.707    -1113868.053 8   -486891.080 9
  21667951.629    -5193358.296 8 -10919130.967 4
  23937648.281     8238392.426 6  -5066443.650 2
  24712817.263    22828973.609 4   3009928.195 2
 94  2  2  2 56  0.0000000  0  9  2 27 26  4  7 13 12  9 15
  21561831.934    -3926580.342 8   2093497.256 7
  23281369.253    25178533.942 6   9394498.697 2
  22934498.257    -5350456.296 6    563516.944 4
  23544691.060    -3877918.216 6  -7239450.354 3
  20756339.006    -1081437.714 8   -461620.663 9
  21655052.879    -5261141.116 8 -10971948.716 5
  24977212.356     2710056.09315  -3094918.104 1
  23920510.195     8148333.954 6  -5136619.019 2
  24725652.097    22896470.135 4   3062522.879 2
 94  2  2  2 56 30.0000000  0  9  2 27 26  4  7 13 12  9 15
  21568103.083    -3893643.995 8   2119161.925 7
  23302074.839    25287375.258 6   9479310.092 2
  22942779.424    -5306925.688 6    597436.874 4
  23527054.539    -3970570.911 6  -7311647.260 3
  20762590.847    -1048602.721 8   -436034.951 9
  21642248.923    -5328428.952 8 -11024380.776 5
  24961107.715     2625273.089 5  -3160982.721 1
  23903405.417     8058413.412 6  -5206686.952 2
  24738578.279    22964437.923 4   3115484.749 2
 94  2  2  2 57  0.0000000  0  9  2 27 26  4  7 13 12  9 15
  21574400.583    -3860532.867 8   2144962.822 7
  23322835.347    25396454.829 6   9564307.160 2
  22951153.107    -5262932.073 6    631717.629 4
  23509449.737    -4063110.427 6  -7383755.912 3
  20768912.871    -1015361.931 8   -410133.031 9
  21629542.819    -5395211.345 8 -11076418.985 5
  24944984.666     2540461.454 5  -3227069.624 1
  23886320.245     7968629.884 6  -5276648.111 2
  24751614.994    23032884.033 5   3168819.432 2
 94  2  2  2 57 30.0000000  0  9  2 27 26  4  7 13 12  9 15
  21580736.127    -3827234.455 8   2170909.644 7
  23343632.370    25505772.078 6   9649489.400 2
  22959615.319    -5218456.973 6    666373.585 4
  23491868.408    -4155521.971 6  -7455764.893 3
  20775318.686     -981706.100 8   -383907.709 9
  21616931.150    -5461479.212 8 -11128056.282 5
  24928814.911     2455630.363 5  -3293171.667 1
  23869260.765     7878985.344 6  -5346500.924 2
  24764736.370    23101814.012 5   3222531.097 2
 94  2  2  2 58  0.0000000  0  9  2 27 26  4  7 13 12  9 15
  21587114.691    -3793734.235 8   2197013.723 7
  23364484.674    25615317.436 6   9734849.384 2
  22968170.916    -5173506.829 6    701399.630 3
  23474305.876    -4247794.729 6  -7527665.718 3
  20781796.991     -947654.488 8   -357373.964 9
  21604418.023    -5527233.424 8 -11179293.300 5
  24912665.720     2370778.149 5  -3359290.189 1
  23852227.996     7789482.594 6  -5416243.293 2
  24777938.120    23171222.918 4   3276615.961 2
 94  2  2  2 58 30.0000000  0  9  2 27 26  4  7 13 12  9 15
  21593531.329    -3760008.130 8   2223293.795 7
  23385375.501    25725098.946 6   9820393.444 2
  22976813.933    -5128091.283 6    736788.348 3
  23456780.729    -4339926.327 6  -7599456.527 3
  20788354.771     -913205.613 8   -330530.689 9
  21592000.379    -5592474.677 8 -11230130.626 5
  24896533.588     2285903.911 5  -3425425.947 1
  23835223.678     7700121.917 6  -5485874.986 2
  24791232.807    23241106.440 4   3331070.589 2
 94  2  2  2 59  0.0000000  0  8  2 27 26  4  7 13 12  9
  21599992.426    -3726036.229 8   2249765.414 7
  23406316.544    25835132.384 6   9906133.728 2
  22985541.071    -5082215.421 6    772535.771 4
  23439275.877    -4431907.090 6  -7671129.830 3
  20794988.459     -878340.502 8   -303363.052 9
  21579686.434    -5657201.637 8 -11280567.203 5
  24880384.188     2201008.769 5  -3491577.925 1
  23818245.052     7610907.952 6  -5555392.274 2
 94  2  2  2 59 30.0000000  0  8  2 27 26  4  7 13 12  9
  21606506.887    -3691812.193 8   2276433.498 7
  23427300.937    25945428.492 6   9992078.788 2
  22994356.198    -5035891.140 6    808632.609 3
  23421794.499    -4523737.241 6  -7742685.801 3
  20801698.174     -843069.872 8   -275879.444 9
  21567465.634    -5721418.668 8 -11330606.417 5
  24864196.475     2116087.908 5  -3557749.878 1
  23801296.855     7521837.408 6  -5624797.865 2
 94  2  2  3  0  0.0000000  0  8  2 27 26  4  7 13 12  9
  21613069.104    -3657345.862 8   2303290.396 7
  23448338.483    26055990.238 6  10078230.758 2
  23003254.099    -4989134.480 6    845066.329 3
  23404345.799    -4615426.723 6  -7814132.121 3
  20808486.614     -807400.993 8   -248085.498 9
  21555342.897    -5785127.486 8 -11380249.635 5
  24848031.096     2031139.263 5  -3623943.563 1
  23784376.029     7432907.180 6  -5694094.133 2
 94  2  2  3  0 30.0000000  0  8  2 27 26  4  7 13 12  9
  21619667.626    -3622662.784 8   2330316.152 7
  23469434.968    26166818.385 6  10164590.353 2
  23012228.656    -4941960.580 6    881825.227 3
  23386927.557    -4706979.045 6  -7885471.548 3
  20815351.892     -771328.343 8   -219976.957 9
  21543317.801    -5848326.835 8 -11429495.889 5
  24831881.726     1946164.179 5  -3690157.897 1
  23767476.039     7344123.311 6  -5763276.350 2
 94  2  2  3  1  0.0000000  0  8  2 27 26  4  7 13 12  9
  21626300.174    -3587799.973 8   2357481.954 6
  23490566.979    26277901.597 5  10251148.663 2
  23021284.546    -4894373.839 6    918905.767 3
  23369540.973    -4798391.241 6  -7956701.864 3
  20822291.278     -734853.875 8   -191555.309 9
  21531386.511    -5911011.959 8 -11478341.447 5
  24815714.069     1861166.968 5  -3756389.505 1
  23750606.897     7255482.775 6  -5832346.901 2
 94  2  2  3  1 30.0000000  0  8  2 27 26  4  7 13 12  9
  21632969.447    -3552774.373 8   2384774.658 6
  23511751.063    26389228.611 5  10337896.964 2
  23030416.584    -4846387.111 6    956297.964 3
  23352165.932    -4889666.913 6  -8027825.727 3
  20829305.522     -697990.904 8   -162830.907 9
  21519559.189    -5973182.846 8 -11526786.273 5
  24799516.072     1776147.519 5  -3822638.325 2
  23733768.874     7166985.423 6  -5901305.843 2
 94  2  2  3  2  0.0000000  0  8  2 27 26  4  7 13 12  9
  21639663.033    -3517591.851 8   2412189.634 6
  23532994.957    26500797.569 5  10424833.818 2
  23039625.459    -4798011.647 6    993993.205 3
  23334831.332    -4980785.634 6  -8098827.277 3
  20836395.344     -660730.684 8   -133796.923 9
  21507823.034    -6034835.174 8 -11574826.985 5
  24783338.012     1691110.084 5  -3888901.107 2
  23716959.061     7078651.537 6  -5970137.384 3
 94  2  2  3  2 30.0000000  0  8  2 27 26  4  7 13 12  9
  21646387.528    -3482250.316 8   2439728.495 6
  23554267.810    26612592.745 5  10511946.941 2
  23048905.325    -4749242.963 6   1031994.772 3
  23317513.641    -5071733.632 6  -8169695.861 3
  20843564.011     -623067.613 8   -104449.084 9
  21496194.234    -6095969.221 8 -11622463.890 5
  24767146.191     1606054.282 5  -3955178.436 1
  23700183.394     6990489.883 6  -6038834.760 3
 94  2  2  3  3  0.0000000  0  8  2 27 26  4  7 13 12  9
  21653147.038    -3446725.888 8   2467409.868 6
  23575579.426    26724608.878 5  10599232.225 2
  23058261.578    -4700057.825 6   1070320.846 3
  23300244.277    -5162507.476 6  -8240428.656 3
  20850809.575     -585005.381 8    -74790.197 9
  21484654.413    -6156585.007 8 -11669696.953 5
  24750953.711     1520980.137 5  -4021469.947 1
  23683436.028     6902498.720 6  -6107399.276 3
 94  2  2  3  3 30.0000000  0  8  2 27 26  4  7 13 12  9
  21659945.941    -3410990.021 8   2495256.007 6
  23596938.709    26836840.181 6  10686685.175 2
  23067702.312    -4650452.192 6   1108974.560 3
  23282999.855    -5253104.832 6  -8311023.987 3
  20858124.091     -546548.840 8    -44824.053 9
  21473220.869    -6216684.415 8 -11716527.653 5
  24734765.698     1435885.661 5  -4087777.198 2
  23666731.293     6814688.478 6  -6175822.820 3
 94  2  2  3  4  0.0000000  0  8  2 27 26  4  7 13 12  9
  21666788.584    -3375052.953 8   2523258.927 6
  23618325.244    26949276.452 5  10774297.846 2
  23077222.551    -4600419.060 6   1147961.404 3
  23265795.095    -5343529.746 6  -8381484.998 3
  20865515.924     -507710.203 8    -14560.164 9
  21461881.489    -6276271.599 8 -11762959.193 5
  24718573.518     1350766.727 5  -4154103.608 2
  23650047.783     6727054.592 6  -6244108.934 3
 94  2  2  3  4 30.0000000  0  8  2 27 26  4  7 13 12  9
  21673662.466    -3338925.620 8   2551410.084 6
  23639769.428    27061915.102 5  10862068.200 2
  23086829.640    -4549937.795 6   1187297.466 3
  23248620.405    -5433791.213 6  -8451818.558 3
  20872977.099     -468499.439 8     15993.675 9
  21450639.991    -6335341.542 8 -11808987.701 5
  24702356.694     1265628.255 5  -4220445.282 2
  23633405.134     6639580.604 6  -6312270.488 3
 94  2  2  3  5  0.0000000  0  8  2 27 26  4  7 13 12  9
  21680570.523    -3302613.573 8   2579705.193 6
  23661228.992    27174766.005 5  10950003.982 2
  23096521.571    -4499017.900 6   1226975.317 3
  23231475.514    -5523896.004 6  -8522030.094 3
  20880508.065     -428931.671 8     46825.720 9
  21439500.033    -6393890.563 8 -11854610.327 5
  24686155.790     1180474.125 5  -4286799.021 2
  23616790.666     6552263.917 6  -6380309.432 3
 94  2  2  3  5 30.0000000  0  8  2 27 26  4  7 13 12  9
  21687512.937    -3266134.523 8   2608130.439 6
  23682756.219    27287832.433 5  11038107.677 2
  23106303.469    -4447679.264 6   1266979.427 3
  23214359.613    -5613837.763 6  -8592114.550 3
  20888103.037     -389008.982 8     77934.318 9
  21428455.589    -6451914.702 8 -11899823.894 5
  24669951.948     1095308.353 5  -4353161.914 2
  23600205.907     6465113.230 6  -6448219.038 3
 94  2  2  3  6  0.0000000  0  8  2 27 26  4  7 13 12  9
  21694479.754    -3229503.015 8   2636674.451 6
  23704306.200    27401119.021 5  11126382.900 2
  23116138.820    -4395921.523 6   1307310.131 3
  23197282.176    -5703612.042 6  -8662068.512 3
  20895770.649     -348723.697 8    109325.455 9
  21417517.271    -6509410.418 8 -11944625.742 5
  24653753.412     1010134.644 5  -4419530.999 2
  23583650.588     6378125.527 6  -6516001.660 3
 94  2  2  3  6 30.0000000  0  8  2 27 26  4  7 13 12  9
  21701484.345    -3192710.314 8   2665344.104 6
  23725904.778    27514616.446 5  11214822.441 2
  23126064.559    -4343772.387 6   1347945.825 3
  23180221.766    -5793220.060 6  -8731892.914 3
  20903503.046     -308080.917 8    140995.152 9
  21406673.179    -6566384.450 8 -11989021.091 5
  24637532.181      924946.439 5  -4485911.406 2
  23567132.144     6291293.257 6  -6583663.161 3
 94  2  2  3  7  0.0000000  0  8  2 27 26  4  7 13 12  9
  21708523.142    -3155727.646 8   2694161.766 6
  23747548.354    27628320.075 5  11303422.636 2
  23136057.091    -4291250.580 6   1388871.904 3
  23163207.885    -5882650.055 6  -8801578.633 3
  20911306.014     -267079.701 8    172944.160 9
  21395931.705    -6622835.798 8 -12033009.122 5
  24621330.108      839744.928 6  -4552302.113 2
  23550639.781     6204627.710 6  -6651194.717 3
 94  2  2  3  7 30.0000000  0  8  2 27 26  4  7 13 12  9
  21715598.154    -3118537.856 8   2723140.823 6
  23769224.908    27742230.142 5  11392183.715 2
  23146128.169    -4238350.457 6   1430092.789 3
  23146230.938    -5971880.268 6  -8871108.632 3
  20919178.984     -225705.042 8    205184.164 9
  21385291.201    -6678758.486 8 -12076585.219 5
  24605125.606      754536.135 6  -4618698.515 2
  23534175.479     6118145.649 6  -6718583.332 3
 94  2  2  3  8  0.0000000  0  8  2 27 26  4  7 13 12  9
  21722718.705    -3081121.842 8   2752296.152 6
  23790930.272    27856345.522 5  11481104.778 2
  23156256.327    -4185080.457 6   1471601.843 3
  23129286.248    -6060907.077 6  -8940480.156 3
  20927124.353     -183957.992 8    237714.345 9
  21374748.609    -6734152.131 8 -12119749.105 5
  24588894.962      669320.948 5  -4685099.942 2
  23517755.157     6031841.825 6  -6785833.025 3
 94  2  2  3  8 30.0010000  0  8  2 27 26  4  7 13 12  9
  21729885.873    -3043463.586 8   2781640.263 6
  23812703.209    27970673.218 5  11570191.276 2
  23166469.327    -4131453.473 6   1513389.140 3
  23112382.151    -6149729.751 6  -9009692.596 3
  20935138.765     -141844.318 8    270530.204 9
  21364308.277    -6789016.372 8 -12162500.435 5
  24572681.017      584098.836 5  -4751506.737 2
  23501368.711     5945724.979 6  -6852937.030 3
 94  2  2  3  9  0.0010000  0  8  2 27 26  4  7 13 12  9
  21737093.154    -3005578.306 8   2811161.251 6
  23834487.118    28085214.624 5  11659444.324 2
  23176740.876    -4077462.169 6   1555460.264 3
  23095531.087    -6238340.891 6  -9078740.234 3
  20943221.200      -99362.793 8    303632.690 9
  21353970.984    -6843346.183 8 -12204835.338 5
  24556464.463      498877.347 6  -4817912.994 2
  23485020.249     5859808.698 6  -6919884.800 3
 94  2  2  3  9 30.0010000  0  8  2 27 26  4  7 13 12  9
  21744342.975    -2967482.616 8   2840846.221 6
  23856334.283    28199973.272 5  11748866.634 2
  23187081.228    -4023103.444 6   1597817.669 3
  23078701.008    -6326748.183 6  -9147629.025 3
  20951377.593      -56504.715 8    337028.601 9
  21343731.722    -6897144.390 8 -12246756.007 5
  24540243.293      413652.940 5  -4884321.578 2
  23468708.931     5774093.937 6  -6986675.495 3
 94  2  2  3 10  0.0010000  0  8  2 27 26  4  7 13 12  9
  21751629.730    -2929194.794 8   2870680.882 6
  23878211.068    28314938.624 5  11838450.015 2
  23197499.405    -3968369.998 6   1640467.116 3
  23061903.217    -6414964.448 6  -9216368.942 3
  20959603.389      -13283.625 8    370707.388 9
  21333597.538    -6950413.105 8 -12288264.084 5
  24524029.408      328423.834 5  -4950733.954 2
  23452435.537     5688568.249 6  -7053318.839 3
 94  2  2  3 10 30.0010000  0  8  2 27 26  4  7 13 12  9
  21758953.990    -2890732.969 8   2900651.138 6
  23900118.642    28430097.492 5  11928184.152 2
  23207986.595    -3913244.320 6   1683422.218 3
  23045155.251    -6502997.190 6  -9284965.859 4
  20967895.798       30296.327 8    404665.797 9
  21323560.906    -7003154.516 8 -12329361.277 5
  24507807.968      243188.394 6  -5017150.961 2
  23436198.957     5603239.435 6  -7119808.839 3
 94  2  2  3 11  0.0010000  0  8  2 27 26  4  7 13 12  9
  21766299.504    -2852104.050 8   2930751.590 6
  23922071.365    28545440.918 5  12018062.128 2
  23218557.457    -3857711.723 6   1726694.340 3
  23028438.254    -6590835.738 6  -9353411.470 3
  20976258.538       74242.035 8    438909.216 9
  21313625.964    -7055364.451 8 -12370044.318 5
  24491585.778      157951.218 6  -5083569.575 2
  23419996.254     5518112.168 6  -7186141.741 3
 94  2  2  3 11 30.0010000  0  8  2 27 26  4  7 13 12  9
  21773685.851    -2813293.259 8   2960993.771 6
  23944052.208    28660965.153 5  12108081.016 2
  23229202.488    -3801770.070 6   1770285.206 3
  23011766.975    -6678465.666 6  -9421694.532 3
  20984690.021      118561.458 8    473443.842 9
  21303790.223    -7107034.236 8 -12410306.470 5
  24475372.072       72721.476 6  -5149982.393 2
  23403839.059     5433189.298 6  -7252315.344 3
 94  2  2  3 12  0.0010000  0  8  2 27 26  4  7 13 12  9
  21781104.965    -2774302.447 8   2991376.219 6
  23966072.803    28776661.835 5  12198234.271 2
  23239922.197    -3745429.365 6   1814187.081 3
  22995126.665    -6765887.092 6  -9489815.066 4
  20993193.455      163230.478 8    508250.881 9
  21294059.319    -7158169.736 8 -12450152.300 5
  24459150.333      -12506.334 6  -5216393.615 2
  23387712.264     5348448.599 6  -7318347.062 3
 94  2  2  3 12 30.0010000  0  8  2 27 26  4  7 13 12  9
  21788561.343    -2735121.281 8   3021906.994 6
  23988119.750    28892525.986 5  12288517.967 2
  23250714.935    -3688723.189 6   1858373.702 3
  22978537.050    -6853098.164 6  -9557771.755 4
  21001759.365      208245.149 8    543327.239 9
  21284432.654    -7208774.632 8 -12489584.672 5
  24442930.511      -97735.043 6  -5282805.499 2
  23371619.734     5263882.991 6  -7384242.324 3
 94  2  2  3 13  0.0010000  0  8  2 27 26  4  7 13 12  9
  21796052.707    -2695740.129 8   3052593.609 6
  24010196.857    29008560.705 5  12378934.593 2
  23261568.441    -3631679.405 6   1902823.401 3
  22961977.774    -6940088.069 6  -9625556.071 4
  21010389.550      253604.288 8    578672.034 9
  21274901.982    -7258844.972 8 -12528600.491 5
  24426724.930     -182960.251 5  -5349214.731 2
  23355562.461     5179480.951 6  -7450010.129 3
 94  2  2  3 13 30.0010000  0  8  2 27 26  4  7 13 12  9
  21803590.808    -2656147.353 8   3083445.141 6
  24032303.822    29124772.264 5  12469489.046 2
  23272489.581    -3574304.229 6   1947531.307 3
  22945469.102    -7026860.811 6  -9693171.159 4
  21019084.191      299301.507 8    614280.263 9
  21265480.644    -7308371.707 8 -12567192.744 5
  24410514.522     -268172.212 6  -5415613.658 2
  23339530.249     5095246.190 6  -7515647.587 3
 94  2  2  3 14  0.0010000  0  8  2 27 26  4  7 13 12  9
  21811160.838    -2616343.436 8   3114461.166 6
  24054461.513    29241162.703 5  12560182.898 2
  23283467.831    -3516598.993 6   1992496.424 3
  22929005.160    -7113419.599 6  -9760619.562 4
  21027844.456      345331.124 8    650147.498 9
  21256156.679    -7357351.394 8 -12605358.725 5
  24394287.776     -353366.795 6  -5481998.976 2
  23323533.054     5011203.004 6  -7581135.744 3
 94  2  2  3 14 30.0010000  0  8  2 27 26  4  7 13 12  9
  21818775.326    -2576333.354 8   3145637.851 6
  24076646.634    29357731.226 5  12651015.462 2
  23294508.557    -3458560.954 6   2037720.866 3
  22912556.207    -7199762.902 6  -9827900.052 4
  21036669.866      391709.352 8    686286.390 9
  21246940.159    -7405778.596 8 -12643094.190 5
  24378087.441     -438538.003 6  -5548366.098 2
  23307588.292     4927385.490 6  -7646448.084 4
 94  2  2  3 15  0.0010000  0  8  2 27 26  4  7 13 12  9
  21826428.308    -2536126.240 8   3176968.078 6
  24098860.506    29474484.522 5  12741992.066 2
  23305627.410    -3400162.678 6   2083226.014 3
  22896182.413    -7285876.653 6  -9895001.623 4
  21045564.769      438447.375 8    722705.633 9
  21237833.484    -7453648.398 8 -12680395.316 5
  24361874.755     -523679.830 6  -5614710.406 2
  23291680.465     4843813.338 6  -7711569.219 3
 94  2  2  3 15 30.0010000  0  8  2 27 26  4  7 13 12  9
  21834114.687    -2495734.425 8   3208442.218 6
  24121109.244    29591420.938 5  12833111.310 2
  23316807.870    -3341393.321 6   2129020.273 3
  22879837.488    -7371759.794 6  -9961923.550 4
  21054526.974      485537.568 8    759399.292 9
  21228828.318    -7500968.360 8 -12717267.977 6
  24345671.452     -608799.448 6  -5681037.300 2
  23275829.718     4760492.333 6  -7776494.656 4
 94  2  2  3 16  0.0010000  0  8  2 27 26  4  7 13 12  9
  21841833.383    -2455165.144 7   3240054.633 6
  24143402.051    29708535.677 5  12924369.538 2
  23328061.239    -3282249.136 6   2175106.702 3
  22863541.699    -7457393.682 6 -10028651.241 4
  21063555.314      532981.279 8    796368.426 9
  21219927.060    -7547740.333 8 -12753713.671 6
  24329483.979     -693897.783 5  -5747347.644 2
  23260021.212     4677421.382 6  -7841225.238 4
 94  2  2  3 16 30.0010000  0  8  2 27 26  4  7 13 12  9
  21849589.164    -2414416.220 8   3271807.032 6
  24165716.982    29825821.742 5  13015761.253 2
  23339388.597    -3222726.064 6   2221488.283 3
  22847290.850    -7542768.845 6 -10095177.321 4
  21072645.171      580760.125 8    833598.708 9
  21211132.499    -7593963.287 8 -12789731.537 6
  24313287.092     -778972.904 5  -5813639.973 2
  23244253.238     4594579.410 6  -7905777.402 4
 94  2  2  3 17  0.0010000  0  8  2 27 26  4  7 13 12  9
  21857379.991    -2373477.998 8   3303706.959 6
  24188072.986    29943276.076 5  13107284.052 2
  23350789.255    -3162818.323 6   2268169.571 3
  22831102.327    -7627883.729 6 -10161500.593 4
  21081796.126      628845.426 8    871067.777 9
  21202441.395    -7639637.096 8 -12825321.493 6
  24297115.597     -864023.915 6  -5879913.451 2
  23228534.190     4511952.077 6  -7970162.319 4
 94  2  2  3 17 30.0010000  0  8  2 27 26  4  7 13 12  9
  21865203.165    -2332349.919 7   3335754.797 6
  24210450.784    30060888.238 5  13198929.885 2
  23362265.640    -3102545.419 6   2315135.500 3
  22814949.209    -7712759.304 7 -10227637.381 4
  21090999.575      677216.113 8    908759.223 9
  21193852.281    -7684766.610 8 -12860487.344 6
  24280931.661     -949054.681 6  -5946171.104 2
  23212849.289     4429537.576 6  -8034381.391 4
 94  2  2  3 18  0.0010000  0  9  2 27 26  4  7 13 12  9 24
  21873067.171    -2291026.243 7   3367955.066 6
  24232867.195    30178653.990 5  13290695.438 2
  23373802.163    -3041912.680 6   2362381.804 3
  22798836.684    -7797399.655 6 -10293590.874 4
  21100258.875      725871.689 8    946672.671 9
  21185372.412    -7729347.850 8 -12895225.960 6
  24264756.089    -1034060.278 6  -6012409.280 2
  23197209.296     4347342.444 6  -8098429.531 4
  24993597.962    -2480896.91014  -1553386.996 2
 94  2  2  3 18 30.0010000  0  9  2 27 26  4  7 13 12  9 24
  21880973.717    -2249496.473 7   3400315.921 6
  24255300.515    30296577.686 5  13382583.987 2
  23385399.275    -2980930.445 6   2409900.417 3
  22782776.112    -7881805.840 6 -10359361.928 4
  21109573.127      774825.871 8    984818.789 9
  21176991.774    -7773376.258 8 -12929533.778 6
  24248585.164    -1119035.175 6  -6078623.421 2
  23181612.174     4265377.406 6  -8162298.357 4
  24974377.458    -2581888.262 4  -1632081.482 2
 94  2  2  3 19  0.0010000  0  9  2 27 26  4  7 13 12  9 24
  21888915.969    -2207757.823 8   3432839.547 6
  24277765.553    30414667.524 5  13474602.023 2
  23397070.075    -2919624.062 6   2457671.558 3
  22766764.647    -7965967.870 6 -10424942.706 4
  21118952.823      824110.750 8   1023222.595 9
  21168717.142    -7816853.152 8 -12963411.857 6
  24232422.573    -1203979.692 6  -6144813.912 2
  23166058.851     4183658.785 6  -8225975.180 4
  24955156.655    -2682914.794 4  -1710803.415 2
 94  2  2  3 19 30.0010000  0  9  2 27 26  4  7 13 12  9 24
  21896898.872    -2165808.504 7   3465527.305 6
  24300272.741    30532909.172 5  13566738.332 2
  23408793.070    -2858020.535 6   2505674.317 3
  22750792.604    -8049874.249 6 -10490324.263 4
  21128400.962      873753.998 8   1061905.641 9
  21160547.018    -7859783.798 8 -12996864.310 6
  24216265.858    -1288897.871 6  -6210983.942 2
  23150550.258     4102181.862 6  -8289463.686 4
  24935926.587    -2783979.529 4  -1789555.130 2
 94  2  2  3 20  0.0010000  0  9  2 27 26  4  7 13 12  9 24
  21904922.038    -2123643.458 8   3498383.185 6
  24322801.935    30651297.205 5  13658988.718 2
  23420574.644    -2796117.067 6   2553910.823 3
  22734880.280    -8133505.897 6 -10555491.772 4
  21137915.685      923766.272 8   1100876.262 9
  21152485.869    -7902162.668 8 -13029886.790 6
  24200106.205    -1373783.391 6  -6277128.456 2
  23135093.708     4020946.302 6  -8352764.099 4
  24916710.880    -2885075.390 4  -1868331.093 2
 94  2  2  3 20 30.0010000  0  9  2 27 26  4  7 13 12  9 24
  21912987.085    -2081252.119 7   3531415.408 6
  24345358.109    30769832.103 5  13751353.549 2
  23432406.163    -2733913.032 6   2602381.478 3
  22719020.449    -8216847.004 6 -10620432.887 4
  21147503.048      974144.412 8   1140131.951 9
  21144526.199    -7943985.007 8 -13062475.605 6
  24183963.970    -1458630.065 6  -6343242.673 2
  23119682.667     3939953.870 6  -8415875.065 4
  24897445.167    -2986197.805 4  -1947127.728 2
 94  2  2  3 21  0.0010000  0  9  2 27 26  4  7 13 12  9 24
  21921095.631    -2038624.832 7   3564631.461 6
  24367946.901    30888523.435 5  13843840.256 2
  23444305.465    -2671395.848 6   2651096.132 3
  22703223.785    -8299891.046 7 -10685142.501 4
  21157158.974     1024880.312 8   1179666.424 9
  21136674.515    -7985246.685 8 -13094627.552 6
  24167831.478    -1543432.801 6  -6409322.727 2
  23104322.980     3859202.584 7  -8478798.118 4
  24878211.443    -3087341.750 4  -2025941.210 2
 94  2  2  3 21 30.0010000  0  9  2 27 26  4  7 13 12  9 24
  21929258.170    -1995774.869 7   3598021.033 6
  24390560.067    31007364.271 5  13936443.479 2
  23456265.625    -2608551.695 6   2700065.597 3
  22687475.298    -8382645.908 7 -10749626.818 4
  21166877.166     1075955.070 8   1219464.946 9
  21128927.878    -8025948.940 8 -13126343.575 6
  24151696.468    -1628191.691 6  -6475368.626 2
  23088996.211     3778685.680 6  -8541538.557 4
  24858961.439    -3188506.024 4  -2104770.449 2
 94  2  2  3 22  0.0010000  0  9  2 27 26  4  7 13 12  9 24
  21937450.149    -1952716.106 7   3631573.305 6
  24413207.918    31126368.902 5  14029174.357 2
  23468289.072    -2545385.925 6   2749285.698 3
  22671773.848    -8465121.241 6 -10813893.290 4
  21176658.015     1127341.573 8   1259506.378 9
  21121287.757    -8066094.994 8 -13157626.206 6
  24135573.300    -1712908.558 6  -6541381.691 2
  23073718.517     3698406.152 7  -8604093.995 4
  24839705.110    -3289696.059 4  -2183619.732 2
 94  2  2  3 22 30.0010000  0  9  2 27 26  4  7 13 12  9 24
  21945678.883    -1909447.937 7   3665288.778 6
  24435879.872    31245547.668 5  14122040.920 2
  23480366.271    -2481917.555 6   2798741.547 3
  22656129.958    -8547326.564 6 -10877949.353 4
  21186493.786     1179029.664 8   1299782.820 9
  21113754.212    -8105691.043 8 -13188480.247 6
  24119459.636    -1797588.511 6  -6607366.054 2
  23058485.523     3618361.788 6  -8666466.229 4
  24820441.916    -3390919.902 4  -2262495.438 2
 94  2  2  3 23  0.0010000  0  9  2 27 26  4  7 13 12  9 24
  21953951.805    -1865978.562 7   3699161.002 6
  24458588.432    31364892.188 5  14215036.636 2
  23492496.353    -2418151.075 6   2848429.652 3
  22640540.390    -8629270.056 7 -10941801.429 4
  21196386.907     1231023.588 8   1340297.553 9
  21106322.597    -8144737.001 8 -13218905.663 6
  24103348.789    -1882230.164 6  -6673320.599 2
  23043299.296     3538558.287 6  -8728650.771 4
  24801173.685    -3492181.399 5  -2341400.467 2
 94  2  2  3 23 30.0010000  0  9  2 27 26  4  7 13 12  9 24
  21962260.164    -1822320.602 7   3733180.187 6
  24481331.797    31484379.260 5  14308143.374 2
  23504683.007    -2354092.448 6   2898345.520 3
  22624994.172    -8710959.249 7 -11005455.325 4
  21206338.008     1283313.461 8   1381042.917 9
  21098997.078    -8183234.214 8 -13248903.475 6
  24087255.240    -1966833.351 6  -6739245.096 2
  23028166.042     3459011.751 7  -8790635.049 4
  24781886.927    -3593486.478 4  -2420339.415 2
 94  2  2  3 24  0.0010000  0  9  2 27 26  4  7 13 12  9 24
  21970610.073    -1778459.870 7   3767357.383 6
  24504092.220    31603999.062 5  14401353.632 2
  23516930.368    -2289743.021 6   2948487.894 3
  22609494.603    -8792393.531 7 -11068910.577 4
  21216341.363     1335878.877 8   1422002.985 9
  21091776.457    -8221181.715 8 -13278472.932 6
  24071162.681    -2051395.904 6  -6805137.947 2
  23013080.426     3379726.829 7  -8852415.494 4
  24762603.556    -3694829.490 5  -2499307.927 2
 94  2  2  3 24 30.0010000  0  9  2 27 26  4  7 13 12  9 24
  21978992.480    -1734390.738 7   3801696.982 6
  24526877.466    31723729.227 5  14494649.851 2
  23529237.268    -2225083.872 6   2998871.622 2
  22594055.831    -8873562.618 7 -11132159.200 4
  21226395.802     1388732.573 8   1463187.689 9
  21084661.812    -8258573.259 8 -13307609.198 6
  24055080.434    -2135910.103 6  -6870993.182 2
  22998043.466     3300717.927 7  -8913980.865 4
  24743308.554    -3796197.234 4  -2578295.764 2
 94  2  2  3 25  0.0010000  0  9  2 27 26  4  7 13 12  9 24
  21987419.646    -1690117.627 7   3836195.491 5
  24549671.646    31843553.981 4  14588019.732 2
  23541604.846    -2160089.739 6   3049516.388 2
  22578657.860    -8954445.257 7 -11195184.631 4
  21236509.121     1441884.073 8   1504604.432 9
  21077653.294    -8295402.217 8 -13336307.071 6
  24039007.421    -2220368.015 6  -6936804.468 2
  22983061.697     3221994.519 7  -8975323.745 4
  24724025.004    -3897576.743 4  -2657292.708 2
 94  2  2  3 25 30.0010000  0  9  2 27 26  4  7 13 12  9 24
  21995882.158    -1645639.981 7   3870853.390 5
  24572502.461    31963485.769 5  14681473.063 2
  23554037.599    -2094760.366 6   3100422.437 3
  22563331.571    -9035019.583 7 -11257969.788 4
  21246683.177     1495329.549 8   1546250.262 9
  21070749.104    -8331666.751 8 -13364565.128 6
  24022942.653    -2304766.376 6  -7002569.347 2
  22968135.391     3143547.712 7  -9036451.136 4
  24704736.507    -3998946.121 5  -2736281.813 2
 94  2  2  3 26  0.0010000  0  9  2 27 26  4  7 13 12  9 24
  22004384.542    -1600959.515 7   3905669.340 5
  24595356.809    32083529.372 5  14775013.535 2
  23566528.961    -2029108.302 5   3151579.859 2
  22548061.132    -9115266.198 7 -11320499.602 4
  21256909.008     1549077.943 8   1588132.138 9
  21063956.526    -8367370.293 8 -13392386.066 6
  24006897.611    -2389107.013 6  -7068289.354 2
  22953254.353     3065362.948 7  -9097374.310 4
  24685446.691    -4100291.630 5  -2815252.261 2
 94  2  2  3 26 30.0010000  0  9  2 27 26  4  7 13 12  9 24
  22012919.963    -1556086.154 7   3940635.581 5
  24618207.290    32203696.229 5  14868650.049 2
  23579086.248    -1963133.738 6   3202988.539 2
  22532846.065    -9195176.934 7 -11382767.694 4
  21267199.744     1603146.627 8   1630263.589 9
  21057270.075    -8402507.712 8 -13419765.863 6
  23990862.611    -2473383.096 6  -7133959.005 2
  22938427.787     2987445.962 7  -9158088.805 4
  24666161.911    -4201611.587 4  -2894202.887 2
 94  2  2  3 27  0.0010000  0  9  2 27 26  4  7 13 12  9 24
  22021498.224    -1511002.277 7   3975765.862 5
  24641100.341    32324002.938 4  14962395.491 2
  23591695.489    -1896851.863 6   3254636.766 3
  22517711.253    -9274746.011 7 -11444769.558 4
  21277547.470     1657524.569 8   1672636.001 9
  21050693.018    -8437075.886 8 -13446702.090 6
  23974834.058    -2557590.136 6  -7199574.828 3
  22923647.629     2909780.491 7  -9218607.364 4
  24646891.642    -4302908.013 5  -2973135.070 2
 94  2  2  3 27 30.0010000  0  9  2 27 26  4  7 13 12  9 24
  22030125.022    -1465700.198 7   4011066.184 5
  24664030.387    32444448.150 4  15056248.854 2
  23604362.260    -1830288.357 6   3306504.446 3
  22502629.324    -9353988.279 7 -11506516.750 4
  21287950.688     1712192.519 8   1715234.406 9
  21044222.478    -8471077.962 8 -13473197.182 6
  23958822.802    -2641729.567 6  -7265138.012 2
  22908918.316     2832368.013 7  -9278928.769 4
  24627616.606    -4404188.914 5  -3052055.242 2
 94  2  2  3 28  0.0010000  0  9  2 27 26  4  7 13 12  9 24
  22038786.326    -1420174.656 7   4046540.637 5
  24686974.883    32565017.429 5  15150198.957 2
  23617079.816    -1763449.275 6   3358586.831 2
  22487609.542    -9432933.916 7 -11568032.802 4
  21298404.571     1767144.917 8   1758054.465 9
  21037859.053    -8504517.063 8 -13499253.630 6
  23942827.495    -2725802.868 6  -7330649.654 3
  22894239.488     2755232.772 7  -9339034.111 4
  24608335.814    -4505476.178 5  -3130980.374 2
 94  2  2  3 28 30.0010000  0  9  2 27 26  4  7 13 12  9 24
  22047497.935    -1374412.741 7   4082199.260 5
  24709929.302    32685708.245 4  15244243.710 2
  23629853.463    -1696337.429 5   3410881.719 2
  22472635.568    -9511601.912 7 -11629332.510 4
  21308914.306     1822364.995 8   1801083.107 9
  21031602.624    -8537394.163 8 -13524872.124 6
  23926841.572    -2809809.456 6  -7396109.279 3
  22879614.712     2678376.158 7  -9398922.401 4
  24589064.255    -4606783.854 5  -3209921.376 2
 94  2  2  3 29  0.0010000  0  9  2 27 26  4  7 13 12  9 24
  22056252.174    -1328400.813 7   4118052.706 5
  24732921.285    32806513.491 5  15338377.641 2
  23642677.115    -1628955.961 6   3463386.760 2
  22457720.324    -9589989.220 7 -11690413.519 4
  21319476.563     1877859.241 8   1844325.370 9
  21025454.271    -8569709.220 8 -13550052.665 6
  23910867.281    -2893747.600 6  -7461515.616 3
  22865042.161     2601801.353 7  -9458591.059 4
  24569784.272    -4708106.808 5  -3288874.329 2
 94  2  2  3 29 30.0010000  0  9  2 27 26  4  7 13 12  9 24
  22065047.246    -1282164.944 7   4154080.637 5
  24755933.894    32927439.549 5  15432605.722 2
  23655555.839    -1561292.582 6   3516111.478 2
  22442852.626    -9668093.090 7 -11751273.672 4
  21330092.214     1933645.092 8   1887794.861 9
  21019413.213    -8601456.543 8 -13574790.830 6
  23894904.922    -2977609.674 6  -7526862.696 3
  22850529.837     2525538.164 7  -9518016.913 4
  24550496.105    -4809431.946 5  -3367828.995 2
 94  2  2  3 30  0.0010000  0  9  2 27 26  4  7 13 12  9 24
  22073888.155    -1235715.805 7   4190274.785 5
  24778972.284    33048489.257 5  15526930.164 2
  23668480.222    -1493339.951 5   3569061.532 2
  22428057.449    -9745890.738 7 -11811895.164 5
  21340763.777     1989736.430 8   1931502.408 9
  21013478.851    -8632633.533 8 -13599084.582 6
  23878965.616    -3061391.328 6  -7592147.050 3
  22836077.263     2449580.291 7  -9577204.857 4
  24531226.555    -4910751.150 5  -3446778.941 2
 94  2  2  3 30 30.0010000  0  9  2 27 26  4  7 13 12  9 24
  22082766.719    -1189064.048 7   4226626.788 5
  24802028.153    33169661.024 5  15621349.744 2
  23681465.103    -1425099.864 5   3622235.625 2
  22413311.767    -9823358.650 7 -11872259.757 5
  21351495.597     2046129.467 8   1975445.047 9
  21007653.434    -8663241.424 8 -13622934.876 6
  23863038.722    -3145092.141 6  -7657368.449 3
  22821674.903     2373905.987 7  -9636171.811 5
  24511941.626    -5012054.719 5  -3525716.863 2
 94  2  2  3 31  0.0010000  0  9  2 27 26  4  7 13 12  9 24
  22091676.581    -1142234.049 7   4263117.679 5
  24825094.904    33290949.396 4  15715860.156 2
  23694507.574    -1356574.029 5   3675632.410 2
  22398639.624    -9900476.879 7 -11932351.874 5
  21362285.098     2102830.014 8   2019627.280 9
  21001938.401    -8693281.049 8 -13646342.369 6
  23847126.008    -3228711.035 6  -7722526.029 2
  22807330.404     2298525.012 7  -9694910.231 5
  24492655.378    -5113339.434 5  -3604639.924 2
 94  2  2  3 31 30.0010000  0  9  2 27 26  4  7 13 12  9 24
  22100624.246    -1095233.094 7   4299741.808 5
  24848214.029    33412351.353 5  15810459.036 2
  23707600.170    -1287774.939 5   3729242.081 2
  22384027.200    -9977244.197 7 -11992170.540 5
  21373131.199     2159819.360 8   2064034.576 9
  20996330.093    -8722756.666 8 -13669310.354 6
  23831227.265    -3312250.223 6  -7787621.451 2
  22793040.496     2223439.206 7  -9753418.661 5
  24473409.691    -5214596.048 5  -3683541.201 2
 94  2  2  3 32  0.0010000  0  9  2 27 26  4  7 13 12  9 24
  22109605.159    -1048025.850 7   4336526.673 5
  24871337.052    33533866.554 5  15905146.179 2
  23720744.330    -1218694.672 5   3783070.799 2
  22369490.684   -10053662.135 7 -12051716.973 5
  21384028.715     2217084.667 8   2108656.887 9
  20990828.002    -8751667.647 8 -13691838.386 6
  23815348.637    -3395707.434 6  -7852653.088 2
  22778810.937     2148643.178 7  -9811701.237 5
  24454133.995    -5315816.126 5  -3762414.059 2
 94  2  2  3 32 30.0010000  0  9  2 27 26  4  7 13 12  9 24
  22118633.139    -1000602.228 7   4373480.109 5
  24894482.199    33655494.316 5  15999921.043 1
  23733941.704    -1149337.711 5   3837115.160 2
  22355011.727   -10129741.746 7 -12110999.756 5
  21394978.694     2274625.810 8   2153494.155 9
  20985434.046    -8780015.009 8 -13713927.221 6
  23799485.029    -3479081.644 6  -7917619.945 2
  22764634.591     2074155.463 7  -9869743.611 5
  24434884.681    -5416987.880 5  -3841249.144 2
 94  2  2  3 33  0.0010000  0  9  2 27 26  4  7 13 12  9 24
  22127698.023     -952952.265 7   4410609.955 5
  24917633.671    33777234.392 4  16094783.399 1
  23747192.681    -1079709.699 5   3891370.789 2
  22340594.858   -10205479.236 7 -12170015.970 5
  21405979.369     2332442.014 8   2198545.735 9
  20980143.969    -8807798.186 8 -13735576.447 6
  23783633.623    -3562370.240 6  -7982520.128 2
  22750519.673     1999990.958 7  -9927534.128 5
  24415638.935    -5518102.139 5  -3920039.484 2
 94  2  2  3 33 30.0010000  0  9  2 27 26  4  7 13 12  9 24
  22136807.817     -905053.194 7   4447933.903 5
  24940843.034    33899085.979 5  16189732.710 2
  23760494.892    -1009808.893 5   3945838.963 2
  22326248.740   -10280890.976 7 -12228778.333 5
  21417034.426     2390530.900 8   2243809.805 9
  20974967.572    -8835019.624 8 -13756787.928 6
  23767799.095    -3645573.743 6  -8047354.031 2
  22736463.544     1926135.288 7  -9985083.977 5
  24396416.033    -5619151.723 5  -3998779.425 2
 94  2  2  3 34  0.0010000  0  9  2 27 26  4  7 13 12  9 24
  22145973.881     -856913.610 7   4485445.265 5
  24964023.586    34021028.655 4  16284752.958 2
  23773848.007     -939650.097 5   4000508.092 2
  22311959.612   -10355979.018 7 -12287288.481 5
  21428138.828     2448899.186 8   2289291.580 9
  20969894.304    -8861684.397 8 -13777565.670 6
  23751979.737    -3728694.969 6  -8112123.814 2
  22722470.041     1852585.155 7 -10042395.752 5
  24377193.460    -5720149.999 5  -4077479.334 2
 94  2  2  3 34 30.0010000  0  8  2 26  4  7 13 12  9 24
  22155172.893     -808554.687 7   4523127.523 5
  23787243.454     -869263.140 5   4055355.067 2
  22297737.338   -10430715.914 7 -12345524.985 5
  21439302.889     2507555.033 8   2334997.442 9
  20964926.473    -8887789.872 8 -13797907.593 6
  23736184.481    -3811729.385 6  -8176825.933 2
  22708531.251     1779342.725 7 -10099467.773 5
  24357996.040    -5821106.321 5  -4156146.644 2
 94  2  2  3 35  0.0010000  0  8  2 26  4  7 13 12  9 24
  22164421.071     -759977.522 7   4560979.860 5
  23800679.373     -798650.372 5   4110378.008 2
  22283585.035   -10505097.361 7 -12403484.531 5
  21450517.226     2566492.563 8   2380922.795 9
  20960065.609    -8913335.820 8 -13817813.516 6
  23720395.282    -3894674.541 6  -8241458.520 2
  22694649.631     1706391.822 7 -10156312.602 5
  24338781.142    -5922035.332 5  -4234792.595 2
 94  2  2  3 35 30.0010000  0  8  2 26  4  7 13 12  9 24
  22173701.536     -711194.047 7   4598992.957 5
  23814155.073     -727823.767 5   4165567.518 2
  22269495.809   -10579129.385 7 -12461171.797 5
  21461783.157     2625707.425 8   2427064.248 9
  20955308.292    -8938322.891 8 -13837283.936 6
  23704631.325    -3977529.081 6  -8306020.468 2
  22680826.710     1633740.040 7 -10212924.382 5
  24319580.874    -6022943.558 5  -4313422.347 2
 94  2  2  3 36  0.0010000  0  8  2 26  4  7 13 12  9 24
  22183017.856     -662228.805 7   4637147.690 5
  23827674.634     -656800.502 5   4220910.314 2
  22255476.464   -10652791.642 7 -12518570.941 5
  21473104.579     2685181.522 8   2473407.693 9
  20950659.590    -8962753.338 8 -13856320.649 6
  23688880.170    -4060292.925 6  -8370511.738 3
  22667058.322     1561394.566 7 -10269297.478 5
  24300369.454    -6123844.111 5  -4392046.151 2
 94  2  2  3 36 30.0010000  0  8  2 26  4  7 13 12  9 24
  22192377.137     -613069.370 7   4675453.709 5
  23841224.054     -585571.240 5   4276413.651 2
  22241527.571   -10726083.844 7 -12575681.720 5
  21484466.144     2744899.240 8   2519940.997 9
  20946115.666    -8986628.014 8 -13874924.284 6
  23673153.147    -4142964.916 7  -8434931.468 2
  22653350.072     1489351.556 7 -10325434.843 5
  24281176.052    -6224735.856 5  -4470663.018 2
 94  2  2  3 37  0.0010000  0  8  2 26  4  7 13 12  9 24
  22201767.086     -563697.275 7   4713925.480 5
  23854826.327     -514110.455 5   4332097.393 2
  22227645.471   -10799027.327 7 -12632520.760 5
  21495877.084     2804852.899 8   2566658.135 8
  20941675.919    -9009944.617 8 -13893093.038 6
  23657434.939    -4225540.225 6  -8499275.857 3
  22639699.862     1417624.461 7 -10381326.062 5
  24261989.514    -6325592.470 5  -4549252.564 2
 94  2  2  3 37 30.0010000  0  8  2 26  4  7 13 12  9 24
  22211200.926     -514118.463 7   4752558.318 5
  23868467.754     -442428.084 5   4387953.771 2
  22213834.273   -10871627.432 7 -12689092.257 5
  21507327.297     2865029.405 8   2613548.919 8
  20937346.377    -9032708.855 8 -13910831.408 6
  23641741.073    -4308022.364 6  -8563547.623 3
  22626114.947     1346218.692 7 -10436966.938 5
  24242801.538    -6426403.874 5  -4627806.930 2
 94  2  2  3 38  0.0010000  0  8  2 26  4  7 13 12  9 24
  22220679.524     -464317.129 7   4791364.543 5
  23882146.354     -370510.799 5   4443993.148 2
  22200084.531   -10943880.230 7 -12745393.110 5
  21518817.503     2925428.527 8   2660613.173 8
  20933119.963    -9054920.171 8 -13928138.919 6
  23626064.656    -4390408.428 6  -8627744.567 3
  22612582.375     1275123.957 7 -10492365.398 5
  24223618.838    -6527156.832 5  -4706315.663 2
 94  2  2  3 38 30.0010000  0  8  2 26  4  7 13 12  9 24
  22230205.579     -414281.546 7   4830353.274 5
  23895881.136     -298355.471 5   4500218.086 2
  22186396.667   -11015804.901 7 -12801438.303 5
  21530357.833     2986050.406 8   2707851.004 8
  20929000.664    -9076581.217 8 -13945017.639 6
  23610401.039    -4472698.867 6  -8691866.948 3
  22599115.518     1204350.714 7 -10547513.375 5
  24204462.219    -6627842.853 5  -4784772.288 2
 94  2  2  3 39  0.0010000  0  8  2 26  4  7 13 12  9 24
  22239764.282     -364024.925 7   4869514.277 5
  23909652.912     -225969.489 5   4556622.757 2
  22172774.188   -11087394.021 7 -12857222.009 5
  21541937.077     3046906.444 8   2755271.292 8
  20924982.666    -9097691.174 8 -13961466.935 6
  23594762.726    -4554890.325 6  -8755912.215 3
  22585711.647     1133904.243 7 -10602406.742 5
  24185312.646    -6728462.708 5  -4863177.362 2
 94  2  2  3 39 30.0010000  0  8  2 26  4  7 13 12  9 24
  22249375.778     -313554.417 7   4908841.958 5
  23923476.702     -153368.681 5   4613194.747 2
  22159221.170   -11158630.712 7 -12912731.097 5
  21553564.558     3108007.774 8   2802882.723 8
  20921070.254    -9118252.305 8 -13977488.585 6
  23579142.190    -4636982.757 6  -8819880.340 3
  22572366.446     1063775.836 7 -10657052.240 5
  24166182.920    -6829040.911 5  -4941549.949 2
 94  2  2  3 40  0.0010000  0  8  2 26  4  7 13 12  9 24
  22259014.195     -262865.139 7   4948340.064 5
  23937321.837      -80547.151 5   4669938.775 2
  22145736.086   -11229486.644 7 -12967943.500 5
  21565242.403     3169371.362 8   2850698.499 8
  20917261.691    -9138258.555 8 -13993077.863 6
  23563545.127    -4718967.537 6  -8883764.554 3
  22559083.571      993975.042 7 -10711442.446 5
  24147051.184    -6929580.134 5  -5019892.175 2
 94  2  2  3 40 30.0010000  0  8  2 26  4  7 13 12  9 24
  22268703.158     -211962.283 7   4988004.631 4
  23951227.740       -7510.080 6   4726850.832 2
  22132325.380   -11299947.538 7 -13022848.076 5
  21576968.785     3231002.093 8   2898722.453 8
  20913561.862    -9157704.201 8 -14008230.295 6
  23547963.534    -4800836.612 6  -8947558.613 3
  22545866.352      924517.166 7 -10765565.481 5
  24127928.892    -7030071.751 5  -5098197.332 2
 94  2  2  3 41  0.0010000  0  8  2 26  4  7 13 12  9 24
  22278430.224     -160853.864 7   5027829.336 4
  23965169.768       65736.244 5   4783925.870 2
  22118996.158   -11370001.045 7 -13077435.226 5
  21588749.010     3292905.825 8   2946959.107 8
  20909969.989    -9176588.780 8 -14022945.585 6
  23532404.635    -4882586.721 6  -9011260.035 3
  22532711.818      855397.682 7 -10819424.836 5
  24108824.468    -7130505.531 5  -5176457.423 2
 94  2  2  3 41 30.0010000  0  9  5  2 26  4  7 13 12  9 24
  25131353.826   -19312164.42914  -2634169.547 2
  22288196.383     -109541.024 7   5067813.344 4
  23979144.324      139186.039 5   4841159.435 2
  22105739.815   -11439652.516 7 -13131709.110 5
  21600576.032     3355058.822 8   2995390.007 8
  20906481.634    -9194917.083 8 -14037227.367 6
  23516869.660    -4964220.337 6  -9074870.597 3
  22519622.190      786620.657 7 -10873017.306 5
  24089714.318    -7230858.160 5  -5254654.258 2
 94  2  2  3 42  0.0010000  0  9  5  2 26  4  7 13 12  9 24
  25117518.943   -19384875.512 4  -2690827.444 2
  22297996.988      -58026.195 7   5107954.759 4
  23993153.685      212837.576 5   4898550.189 2
  22092564.056   -11508906.455 7 -13185673.185 5
  21612446.315     3417432.636 8   3043992.973 8
  20903100.035    -9212688.583 8 -14051075.274 6
  23501358.458    -5045734.263 6  -9138387.918 3
  22506601.004      718197.761 7 -10926333.853 5
  24070637.534    -7331106.940 5  -5332770.195 2
 94  2  2  3 42 30.0010000  0  9  5  2 26  4  7 13 12  9 24
  25103682.802   -19457618.270 5  -2747510.086 2
  22307838.335       -6301.589 7   5148259.623 4
  24007213.472      286693.128 5   4956100.001 2
  22079455.511   -11577779.746 7 -13239340.667 5
  21624352.962     3480011.218 8   3092755.518 8
  20899822.674    -9229902.505 8 -14064488.705 6
  23485868.691    -5127125.128 6  -9201809.429 3
  22493650.360      650132.032 7 -10979372.078 5
  24051584.974    -7431239.065 5  -5410795.152 2
 94  2  2  3 43  0.0010000  0  9  5  2 26  4  7 13 12  9 24
  25089833.230   -19530403.028 4  -2804225.447 2
  22317726.270       45644.535 7   5188737.141 4
  24021307.645      360760.008 5   5013814.444 2
  22066424.402   -11646271.193 7 -13292710.634 5
  21636304.218     3542796.542 8   3141679.156 8
  20896655.846    -9246556.264 8 -14077465.675 6
  23470406.566    -5208387.632 6  -9265130.781 3
  22480765.250      582425.735 7 -11032130.241 5
  24032552.560    -7531257.891 5  -5488731.896 2
 94  2  2  3 43 30.0010000  0  9  5  2 26  4  7 13 12  9 24
  25075979.551   -19603232.428 4  -2860975.528 2
  22327655.696       97825.657 7   5229397.766 4
  24035436.983      435042.671 5   5071697.060 2
  22053459.518   -11714383.167 7 -13345784.825 5
  21648288.062     3605774.366 8   3190752.802 8
  20893591.008    -9262651.237 8 -14090007.163 6
  23454965.485    -5289520.730 7  -9328351.325 3
  22467950.472      515072.249 7 -11084613.434 5
  24013550.245    -7631171.359 5  -5566586.523 2
 94  2  2  3 44  0.0010000  0  9  5  2 26  4  7 13 12  9 24
  25062107.284   -19676088.339 4  -2917746.273 2
  22337632.998      150251.498 7   5270249.058 4
  24049626.310      509541.958 5   5129748.412 2
  22040574.048   -11782103.636 7 -13398554.009 5
  21660308.630     3668960.566 8   3239988.797 8
  20890636.853    -9278187.343 8 -14102113.204 6
  23439551.896    -5370521.389 7  -9391468.766 3
  22455198.080      448063.237 7 -11136828.227 5
  23994542.774    -7730997.589 5  -5644373.131 2
 94  2  2  3 44 30.0010000  0  9  5  2 26  4  7 13 12  9 24
  25048251.626   -19748980.639 4  -2974545.542 2
  22347650.174      202922.617 7   5311291.475 4
  24063838.811      584250.007 5   5187962.499 2
  22027763.227   -11849426.177 7 -13451013.132 5
  21672380.883     3732390.012 8   3289414.337 8
  20887783.129    -9293163.504 8 -14113782.941 6
  23424165.797    -5451385.753 7  -9454479.911 3
  22442513.621      381397.409 7 -11188775.615 5
  23975565.791    -7830737.089 5  -5722092.212 2
 94  2  2  3 45  0.0010000  0  9  5  2 26  4  7 13 12  9 24
  25034357.295   -19821899.157 5  -3031365.034 2
  22357719.543      255837.810 7   5352524.090 4
  24078080.452      659146.753 5   5246323.609 2
  22015030.981   -11916343.611 7 -13503156.571 5
  21684498.914     3796074.975 8   3339038.996 8
  20885038.649    -9307580.480 8 -14125016.936 6
  23408803.922    -5532111.822 7  -9517383.332 3
  22429892.119      315080.760 7 -11240450.937 5
  23956605.267    -7930389.310 5  -5799743.292 2
 94  2  2  3 45 30.0010000  0  9  5  2 26  4  7 13 12  9 24
  25020470.998   -19894827.121 4  -3088191.930 2
  22367836.909      308992.002 7   5393942.922 4
  24092374.196      734211.059 5   5304815.228 2
  22002373.504   -11982852.040 7 -13554981.277 5
  21696668.539     3860019.525 8   3388865.906 8
  20882405.482    -9321438.692 8 -14135815.537 6
  23393469.358    -5612697.206 7  -9580177.159 3
  22417342.057      249124.785 7 -11291845.176 6
  23937654.397    -8029954.082 5  -5877326.181 2
 94  2  2  3 46  0.0010000  0  9  5  2 26  4  7 13 12  9 24
  25006588.329   -19967767.997 4  -3145028.984 2
  22377992.888      362365.507 7   5435532.664 4
  24106691.535      809427.767 5   5363425.656 2
  21989797.660   -12048941.998 7 -13606479.970 5
  21708887.240     3924241.032 8   3438908.640 8
  20879872.235    -9334738.156 8 -14146178.743 6
  23378162.735    -5693139.256 7  -9642859.240 3
  22404864.245      183544.054 7 -11342947.052 6
  23918725.381    -8129431.214 5  -5954840.836 2
 94  2  2  3 46 30.0010000  0  9  5  2 26  4  7 13 12  9 24
  24992717.232   -20040727.137 5  -3201880.244 2
  22388190.598      415953.341 7   5477289.395 4
  24121027.790      884783.667 5   5422144.533 2
  21977300.991   -12114624.237 7 -13657660.911 6
  21721156.306     3988720.107 8   3489152.087 8
  20877448.353    -9347480.565 8 -14156107.896 6
  23362881.054    -5773436.714 7  -9705428.659 3
  22392456.135      118350.811 7 -11393746.974 6
  23899813.603    -8228824.350 5  -6032290.015 2
 94  2  2  3 47  0.0010000  0  9  5  2 26  4  7 13 12  9 24
  24978836.901   -20113692.047 5  -3258735.978 2
  22398431.509      469772.220 7   5519226.202 4
  24135394.744      960300.331 5   5480988.695 2
  21964878.551   -12179895.858 7 -13708521.884 6
  21733473.100     4053428.261 8   3539574.028 8
  20875130.418    -9359660.840 8 -14165598.997 6
  23347632.980    -5853581.472 7  -9767879.147 3
  22380126.001       53552.728 7 -11444238.987 6
  23880925.000    -8328122.209 6  -6109664.940 2
 94  2  2  3 47 30.0010000  0  9  5  2 26  4  7 13 12  9 24
  24964944.339   -20186683.236 5  -3315612.156 2
  22408717.148      523821.269 7   5561342.314 4
  24149804.898     1035997.615 5   5539973.551 2
  21952539.333   -12244742.787 7 -13759051.940 6
  21745828.296     4118352.206 8   3590164.102 8
  20872920.498    -9371278.814 8 -14174651.951 6
  23332408.530    -5933570.573 7  -9830208.294 3
  22367870.456      -10853.687 7 -11494425.794 6
  23862035.587    -8427314.732 5  -6186957.781 3
 94  2  2  3 48  0.0010000  0  9  5  2 26  4  7 13 12  9 24
  24951053.035   -20259724.277 5  -3372527.249 2
  22419047.906      578104.853 7   5603641.202 4
  24164246.890     1111895.871 5   5599115.021 2
  21940278.451   -12309169.395 7 -13809254.489 6
  21758220.008     4183470.962 8   3640905.988 8
  20870812.927    -9382340.555 8 -14183271.487 6
  23317215.947    -6013407.104 7  -9892418.553 3
  22355686.950      -74878.678 7 -11544315.400 6
  23843178.911    -8526393.071 5  -6264161.641 3
 94  2  2  3 48 30.0010000  0  9  5  2 26  4  7 13 12  9 24
  24937126.207   -20332825.056 5  -3429488.891 2
  22429424.263      632638.179 7   5646134.706 4
  24178725.577     1188002.120 5   5658418.642 2
  21928096.535   -12373193.157 7 -13859143.098 6
  21770645.895     4248770.405 8   3691788.683 8
  20868813.401    -9392851.015 8 -14191461.442 6
  23302053.104    -6093092.860 7  -9954511.362 4
  22343573.656     -138535.785 7 -11593918.325 6
  23824352.784    -8625337.620 5  -6341261.259 3
 94  2  2  3 49  0.0010000  0  9  5  2 26  4  7 13 12  9 24
  24923204.984   -20406002.343 5  -3486510.119 2
  22439850.924      687415.993 7   5688818.688 4
  24193245.874     1264324.256 5   5717890.403 2
  21915991.905   -12436805.170 7 -13908710.893 6
  21783104.251     4314254.224 8   3742815.034 8
  20866918.173    -9402812.902 8 -14199223.948 6
  23286915.804    -6172627.793 7 -10016486.597 4
  22331528.175     -201830.755 7 -11643239.089 6
  23805554.328    -8724140.579 6  -6418250.560 3
 94  2  2  3 49 30.0010000  0  9  5  2 26  4  7 13 12  9 24
  24909277.706   -20479261.925 5  -3543595.416 2
  22450317.549      742430.233 6   5731686.913 4
  24207811.321     1340836.363 5   5777510.147 2
  21903963.062   -12499988.109 7 -13957944.337 6
  21795608.654     4379934.868 8   3793994.760 8
  20865133.329    -9412227.664 8 -14206560.117 6
  23271811.870    -6252009.976 7 -10078342.849 4
  22319554.344     -264761.080 7 -11692275.687 6
  23786773.589    -8822808.128 6  -6495134.343 3
 94  2  2  3 50  0.0010000  0  9  5  2 26  4  7 13 12  9 24
  24895322.187   -20552579.262 5  -3600725.850 2
  22460827.223      797665.558 7   5774727.418 4
  24222404.828     1417510.921 5   5837256.562 2
  21892022.358   -12562756.886 7 -14006855.049 6
  21808138.210     4445814.212 8   3845329.309 7
  20863439.651    -9421100.546 8 -14213474.039 6
  23256731.290    -6331241.866 6 -10140081.954 4
  22307647.247     -327329.275 7 -11741030.112 6
  23768020.732    -8921352.049 6  -6571921.776 3
 94  2  2  3 50 30.0010000  0  9  5  2 26  4  7 13 12  9 24
  24881350.719   -20625929.650 5  -3657881.939 2
  22471379.258      853115.578 7   5817935.227 4
  24237019.081     1494314.282 5   5897103.383 2
  21880158.461   -12625100.120 7 -14055434.179 6
  21820714.444     4511895.827 8   3896821.479 7
  20861852.910    -9429428.064 8 -14219963.001 7
  23241683.507    -6410316.668 7 -10201698.653 4
  22295812.370     -389530.330 7 -11789498.478 6
  23749296.804    -9019779.226 6  -6648618.242 3
